<- Previous Day | Today | Next Day ->

All Data for 22 July 2021

 

Time A - D Temp A - D Dew Point A - D Humidity A - D Pressure A - D Wind A - D Wind Dir Gust A - D Rain Rate A - D Rain Total
00:00 21.7 16.4 72 1022.3 2.2 NE 2.2 0.0 0.0
00:01 21.7 16.4 72 1022.6 1.6 NE 2.2 0.0 0.0
00:03 21.7 16.7 73 1022.5 2.2 NE 2.2 0.0 0.0
00:04 21.7 16.7 73 1022.3 2.2 NE 2.2 0.0 0.0
00:05 21.7 16.7 73 1022.3 2.2 NE 2.2 0.0 0.0
00:06 21.7 16.7 73 1022.3 2.2 NE 2.2 0.0 0.0
00:07 21.7 16.7 73 1022.3 2.2 E 2.2 0.0 0.0
00:08 21.7 16.7 73 1022.4 2.2 NE 2.2 0.0 0.0
00:09 21.7 16.7 73 1022.4 2.2 NE 2.2 0.0 0.0
00:10 21.7 16.7 73 1022.3 2.2 E 2.2 0.0 0.0
00:11 21.6 16.6 73 1022.3 2.2 NE 2.2 0.0 0.0
00:12 21.6 16.6 73 1022.2 2.2 NE 2.2 0.0 0.0
00:13 21.6 16.6 73 1022.4 2.2 NE 2.2 0.0 0.0
00:14 21.6 16.6 73 1022.3 2.2 NE 2.2 0.0 0.0
00:15 21.6 16.6 73 1022.4 2.2 NE 2.2 0.0 0.0
00:16 21.6 16.6 73 1022.2 3.1 NE 3.1 0.0 0.0
00:18 21.6 16.6 73 1022.2 2.2 NE 3.1 0.0 0.0
00:19 21.5 16.5 73 1022.3 2.2 NE 3.1 0.0 0.0
00:20 21.5 16.5 73 1022.4 2.2 NE 3.1 0.0 0.0
00:21 21.5 16.5 73 1022.2 2.2 NE 3.1 0.0 0.0
00:22 21.5 16.5 73 1022.4 2.2 NE 3.1 0.0 0.0
00:23 21.5 16.5 73 1022.3 2.2 E 3.1 0.0 0.0
00:24 21.5 16.5 73 1022.3 3.1 NE 3.1 0.0 0.0
00:25 21.5 16.5 73 1022.3 2.2 NE 3.1 0.0 0.0
00:26 21.5 16.5 73 1022.2 2.2 NE 3.1 0.0 0.0
00:27 21.4 16.4 73 1022.3 2.2 NE 3.1 0.0 0.0
00:28 21.4 16.4 73 1022.5 2.2 NE 3.1 0.0 0.0
00:29 21.4 16.4 73 1022.3 2.2 NE 3.1 0.0 0.0
00:30 21.4 16.4 73 1022.3 3.1 E 3.1 0.0 0.0
00:32 21.4 16.4 73 1022.2 2.2 NE 3.1 0.0 0.0
00:33 21.4 16.4 73 1022.3 2.2 NE 3.1 0.0 0.0
00:34 21.4 16.4 73 1022.3 2.2 NE 3.1 0.0 0.0
00:35 21.3 16.3 73 1022.2 2.2 E 3.1 0.0 0.0
00:36 21.3 16.3 73 1022.4 2.2 NE 3.1 0.0 0.0
00:37 21.3 16.3 73 1022.3 2.2 NE 3.1 0.0 0.0
00:38 21.3 16.3 73 1022.1 2.2 NE 3.1 0.0 0.0
00:39 21.3 16.3 73 1022.1 2.2 NE 3.1 0.0 0.0
00:40 21.3 16.3 73 1022.0 2.2 NE 3.1 0.0 0.0
00:41 21.3 16.3 73 1022.4 2.2 NE 3.1 0.0 0.0
00:42 21.3 16.3 73 1022.1 2.2 NE 2.2 0.0 0.0
00:43 21.2 16.2 73 1022.2 2.2 NE 2.2 0.0 0.0
00:44 21.2 16.2 73 1022.3 2.2 NE 2.2 0.0 0.0
00:46 21.2 16.4 74 1022.2 2.2 E 2.2 0.0 0.0
00:47 21.2 16.4 74 1022.3 2.2 NE 2.2 0.0 0.0
00:48 21.2 16.4 74 1022.1 2.2 NE 2.2 0.0 0.0
00:49 21.2 16.4 74 1022.1 2.2 NE 2.2 0.0 0.0
00:50 21.2 16.4 74 1022.1 2.2 NE 2.2 0.0 0.0
00:51 21.2 16.4 74 1022.2 2.2 NE 2.2 0.0 0.0
00:52 21.2 16.4 74 1022.2 2.2 NE 2.2 0.0 0.0
00:53 21.1 16.3 74 1022.3 2.2 NE 2.2 0.0 0.0
00:54 21.1 16.3 74 1022.2 2.2 NE 2.2 0.0 0.0
00:55 21.1 16.3 74 1022.2 2.2 NE 2.2 0.0 0.0
00:56 21.1 16.3 74 1022.4 2.2 NE 2.2 0.0 0.0
00:57 21.0 16.2 74 1022.2 2.2 NE 2.2 0.0 0.0
00:58 21.0 16.2 74 1022.2 2.2 NE 2.2 0.0 0.0
01:00 20.9 16.1 74 1022.1 2.2 NE 2.2 0.0 0.0
01:01 20.9 16.1 74 1022.3 2.2 NE 2.2 0.0 0.0
01:02 20.9 16.1 74 1022.2 2.2 NE 2.2 0.0 0.0
01:03 20.9 16.1 74 1022.1 2.2 NE 2.2 0.0 0.0
01:04 20.9 16.1 74 1022.2 2.2 NE 2.2 0.0 0.0
01:05 20.9 16.1 74 1022.3 2.2 NE 2.2 0.0 0.0
01:06 20.9 16.1 74 1022.2 2.2 NE 2.2 0.0 0.0
01:07 20.8 16.2 75 1022.3 1.6 NE 2.2 0.0 0.0
01:08 20.7 16.1 75 1022.3 1.6 NE 2.2 0.0 0.0
01:09 20.7 16.1 75 1022.0 1.6 NE 2.2 0.0 0.0
01:10 20.6 16.0 75 1022.2 1.6 NE 2.2 0.0 0.0
01:11 20.5 15.9 75 1022.1 1.6 NE 2.2 0.0 0.0
01:12 20.4 15.8 75 1022.1 1.6 NE 2.2 0.0 0.0
01:13 20.3 15.7 75 1022.4 0.7 NE 2.2 0.0 0.0
01:15 20.2 15.8 76 1022.3 0.7 NE 2.2 0.0 0.0
01:16 20.2 15.8 76 1022.2 0.7 NE 1.6 0.0 0.0
01:17 20.0 15.7 76 1022.2 0.0 NE 1.6 0.0 0.0
01:18 20.0 15.7 76 1022.2 0.0 NE 1.6 0.0 0.0
01:19 19.9 15.6 76 1022.2 0.7 NE 1.6 0.0 0.0
01:20 19.9 15.6 76 1022.2 0.7 NE 1.6 0.0 0.0
01:21 19.8 15.7 77 1022.1 0.7 NE 1.6 0.0 0.0
01:22 19.8 15.7 77 1022.1 0.0 NE 1.6 0.0 0.0
01:23 19.8 15.7 77 1022.1 0.0 NE 0.7 0.0 0.0
01:24 19.7 15.8 78 1022.1 0.0 NE 0.7 0.0 0.0
01:25 19.7 15.8 78 1022.2 0.0 NE 0.7 0.0 0.0
01:26 19.6 15.7 78 1022.2 0.7 NE 0.7 0.0 0.0
01:27 19.6 15.7 78 1022.2 0.0 NE 0.7 0.0 0.0
01:29 19.5 15.6 78 1022.1 0.7 NE 0.7 0.0 0.0
01:30 19.4 15.5 78 1022.0 0.7 N 0.7 0.0 0.0
01:31 19.4 15.5 78 1022.0 0.7 NE 0.7 0.0 0.0
01:32 19.3 15.4 78 1022.2 0.7 NE 0.7 0.0 0.0
01:33 19.3 15.6 79 1022.0 0.7 N 0.7 0.0 0.0
01:34 19.3 15.6 79 1022.1 1.6 NE 1.6 0.0 0.0
01:35 19.3 15.6 79 1021.8 2.2 N 2.2 0.0 0.0
01:36 19.3 15.6 79 1021.8 2.2 N 2.2 0.0 0.0
01:37 19.3 15.6 79 1022.0 2.2 N 2.2 0.0 0.0
01:38 19.3 15.6 79 1021.9 2.2 N 2.2 0.0 0.0
01:39 19.4 15.7 79 1021.8 1.6 NE 2.2 0.0 0.0
01:40 19.4 15.7 79 1022.1 2.2 NE 2.2 0.0 0.0
01:41 19.4 15.9 80 1022.0 2.2 N 2.2 0.0 0.0
01:42 19.4 15.9 80 1021.9 2.2 N 2.2 0.0 0.0
01:44 19.5 16.0 80 1022.0 2.2 E 2.2 0.0 0.0
01:45 19.5 16.0 80 1021.9 1.6 NE 2.2 0.0 0.0
01:46 19.5 16.0 80 1021.9 1.6 NE 2.2 0.0 0.0
01:47 19.5 16.0 80 1021.9 1.6 NE 2.2 0.0 0.0
01:48 19.6 16.1 80 1022.2 2.2 NE 2.2 0.0 0.0
01:49 19.6 16.1 80 1021.8 1.6 N 2.2 0.0 0.0
01:50 19.6 15.9 79 1021.9 1.6 NE 2.2 0.0 0.0
01:51 19.6 15.9 79 1022.2 2.2 NE 2.2 0.0 0.0
01:52 19.6 15.9 79 1021.8 2.2 NE 2.2 0.0 0.0
01:53 19.6 15.9 79 1021.9 2.2 E 2.2 0.0 0.0
01:54 19.6 15.9 79 1021.9 2.2 E 2.2 0.0 0.0
01:55 19.7 16.0 79 1022.0 2.2 NE 2.2 0.0 0.0
01:56 19.7 16.0 79 1021.8 2.2 NE 2.2 0.0 0.0
01:58 19.8 15.9 78 1021.8 2.2 NE 2.2 0.0 0.0
01:59 19.8 15.9 78 1022.0 2.2 NE 2.2 0.0 0.0
02:00 19.8 15.9 78 1021.9 2.2 NE 2.2 0.0 0.0
02:01 19.9 16.0 78 1021.9 2.2 NE 2.2 0.0 0.0
02:02 19.9 16.0 78 1021.9 2.2 NE 2.2 0.0 0.0
02:03 19.9 16.0 78 1021.8 2.2 NE 2.2 0.0 0.0
02:04 19.9 15.8 77 1021.7 2.2 NE 2.2 0.0 0.0
02:05 19.9 15.8 77 1022.0 2.2 NE 2.2 0.0 0.0
02:06 20.0 15.9 77 1021.8 2.2 NE 2.2 0.0 0.0
02:07 20.0 15.7 76 1021.9 2.2 NE 2.2 0.0 0.0
02:08 20.0 15.7 76 1021.8 2.2 NE 2.2 0.0 0.0
02:09 20.0 15.7 76 1021.9 3.1 NE 3.1 0.0 0.0
02:10 20.0 15.7 76 1021.9 3.1 NE 3.1 0.0 0.0
02:12 20.1 15.5 75 1021.9 3.1 NE 3.1 0.0 0.0
02:13 20.1 15.5 75 1021.6 2.2 E 3.1 0.0 0.0
02:14 20.1 15.5 75 1021.6 2.2 E 3.1 0.0 0.0
02:15 20.1 15.5 75 1021.9 3.1 NE 3.1 0.0 0.0
02:16 20.2 15.6 75 1021.9 3.1 NE 3.1 0.0 0.0
02:17 20.2 15.6 75 1021.7 3.1 NE 3.1 0.0 0.0
02:18 20.2 15.6 75 1021.9 3.1 NE 3.1 0.0 0.0
02:19 20.2 15.4 74 1021.6 2.2 NE 3.1 0.0 0.0
02:20 20.2 15.4 74 1021.8 2.2 NE 3.1 0.0 0.0
02:21 20.2 15.4 74 1021.8 2.2 NE 3.1 0.0 0.0
02:22 20.3 15.5 74 1022.0 2.2 NE 3.1 0.0 0.0
02:23 20.3 15.3 73 1021.8 3.1 NE 3.1 0.0 0.0
02:24 20.3 15.3 73 1022.0 3.1 NE 3.1 0.0 0.0
02:26 20.3 15.3 73 1021.7 2.2 NE 3.1 0.0 0.0
02:27 20.3 15.3 73 1021.8 2.2 NE 3.1 0.0 0.0
02:28 20.3 15.3 73 1021.7 3.1 NE 3.1 0.0 0.0
02:29 20.3 15.3 73 1021.5 2.2 NE 3.1 0.0 0.0
02:30 20.3 15.3 73 1021.6 2.2 NE 3.1 0.0 0.0
02:31 20.4 15.4 73 1021.5 3.1 NE 3.1 0.0 0.0
02:32 20.4 15.4 73 1021.4 3.1 NE 3.1 0.0 0.0
02:33 20.4 15.4 73 1021.3 3.1 E 3.1 0.0 0.0
02:34 20.4 15.4 73 1021.6 3.1 E 3.1 0.0 0.0
02:35 20.4 15.4 73 1021.7 3.1 NE 3.1 0.0 0.0
02:36 20.4 15.4 73 1021.6 3.8 NE 3.8 0.0 0.0
02:37 20.5 15.3 72 1021.6 3.8 NE 3.8 0.0 0.0
02:38 20.5 15.3 72 1021.5 3.8 NE 3.8 0.0 0.0
02:39 20.5 15.3 72 1021.7 3.1 NE 3.8 0.0 0.0
02:41 20.5 15.1 71 1021.7 3.1 NE 3.8 0.0 0.0
02:42 20.5 15.1 71 1021.7 3.1 NE 3.8 0.0 0.0
02:43 20.5 15.1 71 1021.5 3.1 NE 3.8 0.0 0.0
02:44 20.5 15.1 71 1021.7 3.1 NE 3.8 0.0 0.0
02:45 20.5 15.1 71 1021.7 3.1 NE 3.8 0.0 0.0
02:46 20.6 15.0 70 1021.6 3.1 NE 3.8 0.0 0.0
02:47 20.6 15.0 70 1021.5 3.1 NE 3.8 0.0 0.0
02:48 20.6 15.0 70 1021.6 2.2 NE 3.8 0.0 0.0
02:49 20.6 15.0 70 1021.5 3.1 E 3.1 0.0 0.0
02:50 20.6 15.0 70 1021.8 3.1 NE 3.1 0.0 0.0
02:51 20.6 15.0 70 1021.7 3.1 NE 3.1 0.0 0.0
02:52 20.6 15.0 70 1021.4 3.1 NE 3.1 0.0 0.0
02:54 20.6 15.0 70 1021.7 3.1 NE 3.1 0.0 0.0
02:55 20.6 15.0 70 1021.7 3.1 NE 3.1 0.0 0.0
02:56 20.6 15.0 70 1021.7 3.1 NE 3.1 0.0 0.0
02:57 20.6 15.0 70 1021.4 3.1 NE 3.1 0.0 0.0
02:58 20.6 15.0 70 1021.5 3.1 NE 3.1 0.0 0.0
02:59 20.7 15.0 70 1021.5 3.1 N 3.1 0.0 0.0
03:00 20.7 15.0 70 1021.5 3.1 NE 3.1 0.0 0.0
03:01 20.7 15.0 70 1021.5 3.1 NE 3.1 0.0 0.0
03:02 20.7 15.0 70 1021.5 3.1 NE 3.1 0.0 0.0
03:03 20.7 15.0 70 1021.6 3.1 NE 3.1 0.0 0.0
03:04 20.7 15.0 70 1021.5 3.1 NE 3.1 0.0 0.0
03:05 20.7 15.0 70 1021.4 3.1 NE 3.1 0.0 0.0
03:06 20.7 15.3 71 1021.8 2.2 N 3.1 0.0 0.0
03:07 20.7 15.3 71 1021.4 2.2 NE 3.1 0.0 0.0
03:09 20.7 15.3 71 1021.6 2.2 N 3.1 0.0 0.0
03:10 20.7 15.5 72 1021.2 2.2 NE 3.1 0.0 0.0
03:11 20.7 15.5 72 1021.7 2.2 N 3.1 0.0 0.0
03:12 20.7 15.5 72 1021.5 1.6 NE 3.1 0.0 0.0
03:13 20.7 15.5 72 1021.8 2.2 NE 3.1 0.0 0.0
03:14 20.7 15.5 72 1021.5 1.6 NE 3.1 0.0 0.0
03:15 20.7 15.5 72 1021.4 1.6 N 3.1 0.0 0.0
03:16 20.7 15.5 72 1021.4 2.2 NE 2.2 0.0 0.0
03:17 20.7 15.5 72 1021.5 2.2 NE 2.2 0.0 0.0
03:18 20.7 15.5 72 1021.4 2.2 NE 2.2 0.0 0.0
03:19 20.7 15.7 73 1021.5 2.2 NE 2.2 0.0 0.0
03:20 20.7 15.7 73 1021.5 2.2 NE 2.2 0.0 0.0
03:21 20.7 15.7 73 1021.5 3.1 NE 3.1 0.0 0.0
03:23 20.7 15.7 73 1021.5 3.1 E 3.1 0.0 0.0
03:24 20.7 15.7 73 1021.3 3.1 NE 3.1 0.0 0.0
03:25 20.7 15.7 73 1021.5 2.2 NE 3.1 0.0 0.0
03:26 20.7 15.7 73 1021.4 3.1 NE 3.1 0.0 0.0
03:27 20.7 15.7 73 1021.5 3.1 NE 3.1 0.0 0.0
03:28 20.7 15.7 73 1021.7 3.1 NE 3.1 0.0 0.0
03:29 20.7 15.7 73 1021.6 3.1 NE 3.1 0.0 0.0
03:30 20.7 15.5 72 1021.5 3.1 NE 3.1 0.0 0.0
03:31 20.7 15.5 72 1021.5 2.2 NE 3.1 0.0 0.0
03:32 20.7 15.5 72 1021.5 3.1 NE 3.1 0.0 0.0
03:33 20.7 15.5 72 1021.5 3.1 NW 3.1 0.0 0.0
03:34 20.7 15.5 72 1021.6 2.2 NE 3.1 0.0 0.0
03:35 20.7 15.5 72 1021.6 3.1 N 3.1 0.0 0.0
03:36 20.7 15.5 72 1021.3 3.1 NE 3.1 0.0 0.0
03:38 20.7 15.5 72 1021.5 2.2 NE 3.1 0.0 0.0
03:39 20.7 15.5 72 1021.8 2.2 E 3.1 0.0 0.0
03:40 20.7 15.5 72 1021.5 3.1 E 3.1 0.0 0.0
03:41 20.7 15.5 72 1021.5 3.1 E 3.1 0.0 0.0
03:42 20.7 15.5 72 1021.4 3.1 E 3.1 0.0 0.0
03:43 20.8 15.6 72 1021.3 3.1 NE 3.1 0.0 0.0
03:44 20.8 15.6 72 1021.5 2.2 N 3.1 0.0 0.0
03:45 20.8 15.6 72 1021.5 3.1 E 3.1 0.0 0.0
03:46 20.8 15.6 72 1021.4 3.1 N 3.1 0.0 0.0
03:47 20.8 15.4 71 1021.4 3.1 N 3.1 0.0 0.0
03:48 20.8 15.4 71 1021.5 2.2 NE 3.1 0.0 0.0
03:49 20.8 15.4 71 1021.4 2.2 NE 3.1 0.0 0.0
03:50 20.8 15.4 71 1021.6 3.1 E 3.1 0.0 0.0
03:52 20.8 15.4 71 1021.5 2.2 E 3.1 0.0 0.0
03:53 20.8 15.4 71 1021.5 2.2 NE 3.1 0.0 0.0
03:54 20.8 15.4 71 1021.5 2.2 NE 3.1 0.0 0.0
03:55 20.8 15.4 71 1021.5 2.2 NE 3.1 0.0 0.0
03:56 20.8 15.4 71 1021.3 2.2 NE 3.1 0.0 0.0
03:57 20.8 15.4 71 1021.6 2.2 NE 3.1 0.0 0.0
03:58 20.8 15.4 71 1021.5 2.2 NE 3.1 0.0 0.0
03:59 20.8 15.4 71 1021.4 1.6 NNE 3.1 0.0 0.0
04:00 20.8 15.4 71 1021.6 3.1 NE 3.1 0.0 0.0
04:01 20.8 15.4 71 1021.3 2.2 NE 3.1 0.0 0.0
04:02 20.8 15.4 71 1021.4 2.2 NE 3.1 0.0 0.0
04:03 20.8 15.4 71 1021.1 2.2 NE 3.1 0.0 0.0
04:04 20.8 15.4 71 1021.3 2.2 NE 3.1 0.0 0.0
04:06 20.7 15.3 71 1021.4 2.2 NE 3.1 0.0 0.0
04:07 20.7 15.3 71 1021.4 3.1 NE 3.1 0.0 0.0
04:08 20.7 15.3 71 1021.2 2.2 E 3.1 0.0 0.0
04:09 20.7 15.3 71 1021.5 2.2 NE 3.1 0.0 0.0
04:10 20.8 15.4 71 1021.4 2.2 E 3.1 0.0 0.0
04:11 20.7 15.3 71 1021.4 3.1 NE 3.1 0.0 0.0
04:12 20.7 15.3 71 1021.3 3.1 NE 3.1 0.0 0.0
04:13 20.7 15.3 71 1021.2 3.8 NE 3.8 0.0 0.0
04:14 20.8 15.4 71 1021.5 3.1 E 3.8 0.0 0.0
04:15 20.8 15.4 71 1021.2 3.1 NE 3.8 0.0 0.0
04:16 20.8 15.4 71 1021.6 2.2 NE 3.8 0.0 0.0
04:17 20.8 15.4 71 1021.4 3.8 E 3.8 0.0 0.0
04:18 20.8 15.4 71 1021.4 3.1 NE 3.8 0.0 0.0
04:20 20.8 15.4 71 1021.4 2.2 NE 3.8 0.0 0.0
04:21 20.8 15.4 71 1021.2 3.8 NE 3.8 0.0 0.0
04:22 20.8 15.4 71 1021.2 3.8 NE 3.8 0.0 0.0
04:23 20.9 15.5 71 1021.4 3.8 NE 3.8 0.0 0.0
04:24 20.9 15.5 71 1021.4 3.1 NE 3.8 0.0 0.0
04:25 20.9 15.5 71 1021.3 4.5 NE 4.5 0.0 0.0
04:26 20.9 15.5 71 1021.5 4.5 E 4.5 0.0 0.0
04:27 20.9 15.5 71 1021.2 4.5 NE 4.5 0.0 0.0
04:28 20.9 15.5 71 1021.6 3.8 N 4.5 0.0 0.0
04:29 20.9 15.5 71 1021.2 4.5 NW 4.5 0.0 0.0
04:30 20.9 15.7 72 1021.3 3.8 NE 4.5 0.0 0.0
04:31 20.9 15.7 72 1021.4 3.8 E 4.5 0.0 0.0
04:32 20.9 15.7 72 1021.4 5.4 NE 5.4 0.0 0.0
04:33 20.9 15.7 72 1021.4 3.8 NE 5.4 0.0 0.0
04:35 20.9 15.7 72 1021.3 3.1 NE 5.4 0.0 0.0
04:36 20.9 15.7 72 1021.5 3.8 NE 5.4 0.0 0.0
04:37 20.9 15.7 72 1021.4 3.8 NE 5.4 0.0 0.0
04:38 20.9 15.7 72 1021.6 3.8 NE 5.4 0.0 0.0
04:39 21.0 16.0 73 1021.5 2.2 E 5.4 0.0 0.0
04:40 21.0 16.0 73 1021.5 3.8 NE 5.4 0.0 0.0
04:41 21.0 16.0 73 1021.5 3.8 NE 5.4 0.0 0.0
04:42 20.9 15.9 73 1021.3 3.8 NE 5.4 0.0 0.0
04:43 20.9 15.9 73 1021.4 3.8 NE 4.5 0.0 0.0
04:44 20.9 15.9 73 1021.5 3.8 NE 3.8 0.0 0.0
04:45 20.9 15.9 73 1021.4 3.8 NE 3.8 0.0 0.0
04:46 20.9 16.1 74 1021.2 2.2 NE 3.8 0.0 0.0
04:47 20.9 16.1 74 1021.4 4.5 NE 4.5 0.0 0.0
04:49 20.9 16.1 74 1021.3 2.2 NE 4.5 0.0 0.0
04:50 20.9 16.1 74 1021.3 3.8 NE 4.5 0.0 0.0
04:51 20.9 16.1 74 1021.4 3.1 NE 4.5 0.0 0.0
04:52 20.9 16.1 74 1021.2 2.2 NE 4.5 0.0 0.0
04:53 20.8 16.2 75 1021.4 2.2 NE 4.5 0.0 0.0
04:54 20.8 16.2 75 1021.6 3.1 E 4.5 0.0 0.0
04:55 20.8 16.2 75 1021.3 2.2 NE 4.5 0.0 0.0
04:56 20.8 16.2 75 1021.4 2.2 NW 4.5 0.0 0.0
04:57 20.8 16.2 75 1021.3 3.1 NE 4.5 0.0 0.0
04:58 20.8 16.2 75 1021.5 2.2 NW 4.5 0.0 0.0
04:59 20.8 16.4 76 1021.4 1.6 N 3.8 0.0 0.0
05:00 20.7 16.3 76 1021.4 3.8 NW 3.8 0.0 0.0
05:01 20.7 16.3 76 1021.4 3.8 NW 3.8 0.0 0.0
05:02 20.7 16.3 76 1021.3 3.8 NW 3.8 0.0 0.0
05:04 20.7 16.3 76 1021.2 3.8 NW 3.8 0.0 0.0
05:05 20.7 16.5 77 1021.4 3.1 NE 3.8 0.0 0.0
05:06 20.7 16.5 77 1021.4 3.1 NE 3.8 0.0 0.0
05:07 20.6 16.4 77 1021.4 3.1 E 3.8 0.0 0.0
05:08 20.6 16.4 77 1021.3 3.1 SW 3.8 0.0 0.0
05:09 20.6 16.4 77 1021.5 3.1 E 3.8 0.0 0.0
05:10 20.6 16.4 77 1021.5 3.8 N 3.8 0.0 0.0
05:11 20.6 16.6 78 1021.5 2.2 E 3.8 0.0 0.0
05:12 20.5 16.5 78 1021.5 3.8 NE 3.8 0.0 0.0
05:13 20.5 16.5 78 1021.3 5.4 NE 5.4 0.0 0.0
05:14 20.5 16.5 78 1021.4 5.4 NE 5.4 0.0 0.0
05:15 20.5 16.5 78 1021.3 5.4 E 5.4 0.0 0.0
05:16 20.5 16.5 78 1021.4 4.5 NE 5.4 0.0 0.0
05:18 20.4 16.4 78 1021.3 5.4 E 5.4 0.0 0.0
05:19 20.4 16.4 78 1021.5 4.5 NE 5.4 0.0 0.0
05:20 20.4 16.4 78 1021.4 4.5 NE 5.4 0.0 0.0
05:21 20.4 16.4 78 1021.3 4.5 NE 5.4 0.0 0.0
05:22 20.4 16.4 78 1021.2 3.8 E 5.4 0.0 0.0
05:23 20.4 16.4 78 1021.3 3.8 NE 5.4 0.0 0.0
05:24 20.4 16.4 78 1021.2 5.4 NE 5.4 0.0 0.0
05:25 20.4 16.4 78 1021.6 6.0 NE 6.0 0.0 0.0
05:26 20.4 16.4 78 1021.5 4.5 NE 6.0 0.0 0.0
05:27 20.4 16.4 78 1021.2 4.5 E 6.0 0.0 0.0
05:28 20.3 16.4 78 1021.5 5.4 E 6.0 0.0 0.0
05:29 20.3 16.6 79 1021.3 5.4 NE 6.0 0.0 0.0
05:30 20.3 16.6 79 1021.3 4.5 E 6.0 0.0 0.0
05:31 20.3 16.6 79 1021.4 3.8 NE 6.0 0.0 0.0
05:32 20.3 16.6 79 1021.3 4.5 NE 6.0 0.0 0.0
05:33 20.3 16.6 79 1021.2 5.4 SE 6.0 0.0 0.0
05:35 20.3 16.6 79 1021.2 5.4 NE 5.4 0.0 0.0
05:36 20.3 16.6 79 1021.3 4.5 S 5.4 0.0 0.0
05:37 20.3 16.6 79 1021.4 3.8 NE 5.4 0.0 0.0
05:38 20.3 16.6 79 1021.4 4.5 E 5.4 0.0 0.0
05:39 20.3 16.6 79 1021.2 5.4 NE 5.4 0.0 0.0
05:40 20.3 16.6 79 1021.2 3.8 NW 5.4 0.0 0.0
05:41 20.3 16.6 79 1021.2 6.0 E 6.0 0.0 0.0
05:42 20.2 16.5 79 1021.1 4.5 NE 6.0 0.0 0.0
05:43 20.2 16.5 79 1021.3 4.5 E 6.0 0.0 0.0
05:44 20.2 16.7 80 1021.1 4.5 NE 6.0 0.0 0.0
05:45 20.2 16.7 80 1021.3 6.9 NE 6.9 0.0 0.0
05:46 20.2 16.7 80 1021.3 6.9 NE 6.9 0.0 0.0
05:47 20.2 16.7 80 1021.3 4.5 E 6.9 0.0 0.0
05:49 20.2 16.7 80 1021.2 5.4 NE 6.9 0.0 0.0
05:50 20.1 16.6 80 1021.4 5.4 SE 6.9 0.0 0.0
05:51 20.1 16.6 80 1021.1 5.4 E 6.9 0.0 0.0
05:52 20.1 16.6 80 1021.3 4.5 NE 6.9 0.0 0.0
05:53 20.1 16.6 80 1021.4 6.0 E 6.9 0.0 0.0
05:54 20.1 16.8 81 1021.6 6.0 NE 6.9 0.0 0.0
05:57 20.1 16.8 81 1021.4 5.4 W 6.0 0.0 0.0
05:58 20.1 16.8 81 1021.4 5.4 W 6.0 0.0 0.0
05:59 20.0 16.7 81 1021.3 6.9 NE 6.9 0.0 0.0
06:00 20.0 16.7 81 1021.3 6.9 NE 6.9 0.0 0.0
06:01 20.0 16.7 81 1021.4 6.9 NE 6.9 0.0 0.0
06:02 20.0 16.7 81 1021.4 6.9 NE 6.9 0.0 0.0
06:03 20.0 16.7 81 1021.5 6.9 NE 6.9 0.0 0.0
06:04 20.0 16.7 81 1021.4 6.9 NE 6.9 0.0 0.0
06:05 20.0 16.7 81 1021.3 6.9 NE 6.9 0.0 0.0
06:06 20.0 16.7 81 1021.3 6.9 NE 6.9 0.0 0.0
06:07 19.9 16.7 82 1021.5 5.4 NE 6.9 0.0 0.0
06:08 19.9 16.7 82 1021.6 4.5 NE 6.9 0.0 0.0
06:09 19.9 16.7 82 1021.5 3.8 W 6.9 0.0 0.0
06:10 19.9 16.7 82 1021.4 3.1 NE 6.9 0.0 0.0
06:12 19.9 16.9 83 1021.5 3.8 E 6.9 0.0 0.0
06:14 19.9 16.9 83 1021.5 4.5 SE 6.9 0.0 0.0
06:15 19.8 16.8 83 1021.2 6.0 NNE 6.9 0.0 0.0
06:16 19.8 16.8 83 1021.5 3.8 E 6.9 0.0 0.0
06:17 19.8 16.8 83 1021.5 6.0 E 6.0 0.0 0.0
06:18 19.8 16.8 83 1021.2 5.4 E 6.0 0.0 0.0
06:19 19.8 16.8 83 1021.5 3.8 N 6.0 0.0 0.0
06:20 19.8 17.0 84 1021.6 6.0 NE 6.0 0.0 0.0
06:21 19.8 17.0 84 1021.4 6.0 NE 6.0 0.0 0.0
06:22 19.8 17.0 84 1021.4 5.4 NE 6.0 0.0 0.0
06:23 19.7 16.9 84 1021.3 6.0 E 6.0 0.0 0.0
06:24 19.7 16.9 84 1021.4 6.0 E 6.0 0.0 0.0
06:25 19.7 16.9 84 1021.4 5.4 E 6.0 0.0 0.0
06:27 19.7 17.1 85 1021.4 3.8 NE 6.0 0.0 0.0
06:28 19.7 17.1 85 1021.4 5.4 E 6.0 0.0 0.0
06:29 19.7 17.1 85 1021.6 5.4 NE 6.0 0.0 0.0
06:30 19.7 17.1 85 1021.4 3.8 NE 6.0 0.0 0.0
06:31 19.8 17.2 85 1021.6 6.0 NE 6.0 0.0 0.0
06:32 19.8 17.4 86 1021.4 4.5 NE 6.0 0.0 0.0
06:33 19.8 17.4 86 1021.4 3.1 E 6.0 0.0 0.0
06:34 19.8 17.4 86 1021.5 4.5 E 6.0 0.0 0.0
06:35 19.8 17.4 86 1021.4 3.1 N 6.0 0.0 0.0
06:36 19.8 17.4 86 1021.3 3.8 NE 6.0 0.0 0.0
06:37 19.8 17.4 86 1021.4 4.5 NE 6.0 0.0 0.0
06:38 19.8 17.6 87 1021.4 3.8 N 6.0 0.0 0.0
06:39 19.8 17.6 87 1021.5 3.8 N 6.0 0.0 0.0
06:40 19.8 17.6 87 1021.3 4.5 E 6.0 0.0 0.0
06:42 19.8 17.6 87 1021.7 3.8 NE 4.5 0.0 0.0
06:43 19.8 17.6 87 1021.5 5.4 NE 5.4 0.0 0.0
06:44 19.8 17.6 87 1021.6 3.8 NE 5.4 0.0 0.0
06:45 19.8 17.8 88 1021.6 5.4 ENE 5.4 0.0 0.0
06:46 19.8 17.8 88 1021.5 6.0 E 6.0 0.0 0.0
06:47 19.8 17.8 88 1021.4 4.5 NE 6.0 0.0 0.0
06:48 19.8 17.8 88 1021.5 5.4 NE 6.0 0.0 0.0
06:49 19.8 17.8 88 1021.5 3.8 NE 6.0 0.0 0.0
06:50 19.8 17.8 88 1021.5 3.1 NE 6.0 0.0 0.0
06:51 19.9 17.9 88 1021.6 3.8 E 6.0 0.0 0.0
06:52 19.9 18.0 89 1021.5 1.6 NE 6.0 0.0 0.0
06:53 19.9 18.0 89 1021.6 2.2 NE 6.0 0.0 0.0
06:54 19.9 18.0 89 1021.6 2.2 NE 6.0 0.0 0.0
06:55 19.9 18.0 89 1021.5 3.1 E 6.0 0.0 0.0
06:57 19.9 18.0 89 1021.6 3.1 NNE 5.4 0.0 0.0
06:58 19.9 18.0 89 1021.5 3.1 N 3.8 0.0 0.0
06:59 19.9 18.0 89 1021.6 2.2 NE 3.8 0.0 0.0
07:00 20.0 18.1 89 1021.6 1.6 N 3.8 0.0 0.0
07:01 20.0 18.1 89 1021.6 1.6 N 3.8 0.0 0.0
07:02 20.0 18.1 89 1021.6 1.6 N 3.1 0.0 0.0
07:03 20.0 18.1 89 1021.5 1.6 N 3.1 0.0 0.0
07:04 20.0 18.1 89 1021.5 1.6 N 3.1 0.0 0.0
07:05 20.0 18.1 89 1021.4 1.6 N 3.1 0.0 0.0
07:06 20.0 18.1 89 1021.5 1.6 N 3.1 0.0 0.0
07:07 20.0 18.1 89 1021.4 1.6 N 3.1 0.0 0.0
07:08 20.0 18.1 89 1021.4 1.6 N 3.1 0.0 0.0
07:09 20.1 18.2 89 1021.6 2.2 NE 4.5 0.0 0.0
07:11 20.2 18.3 89 1021.3 4.5 E 4.5 0.0 0.0
07:12 20.2 18.3 89 1021.4 3.8 E 4.5 0.0 0.0
07:13 20.2 18.3 89 1021.4 2.2 NE 4.5 0.0 0.0
07:14 20.2 18.3 89 1021.4 4.5 NE 4.5 0.0 0.0
07:15 20.2 18.3 89 1021.4 3.8 NE 4.5 0.0 0.0
07:16 20.3 18.4 89 1021.4 6.0 NE 6.0 0.0 0.0
07:17 20.3 18.4 89 1021.2 4.5 N 6.0 0.0 0.0
07:18 20.3 18.4 89 1021.5 4.5 NE 6.0 0.0 0.0
07:19 20.3 18.4 89 1021.4 4.5 NE 6.0 0.0 0.0
07:20 20.3 18.4 89 1021.4 5.4 E 6.0 0.0 0.0
07:21 20.3 18.4 89 1021.5 5.4 N 6.0 0.0 0.0
07:22 20.4 18.4 88 1021.2 3.8 NE 6.0 0.0 0.0
07:23 20.4 18.4 88 1021.4 4.5 E 6.0 0.0 0.0
07:24 20.4 18.4 88 1021.6 4.5 E 6.0 0.0 0.0
07:25 20.4 18.4 88 1021.4 4.5 E 6.0 0.0 0.0
07:26 20.4 18.4 88 1021.4 5.4 NE 5.4 0.0 0.0
07:28 20.5 18.5 88 1021.5 4.5 NE 5.4 0.0 0.0
07:29 20.5 18.5 88 1021.3 4.5 NE 5.4 0.0 0.0
07:30 20.5 18.5 88 1021.5 4.5 NE 5.4 0.0 0.0
07:31 20.5 18.5 88 1021.3 5.4 E 5.4 0.0 0.0
07:32 20.5 18.5 88 1021.5 6.0 NE 6.0 0.0 0.0
07:33 20.5 18.5 88 1021.3 6.0 NE 6.0 0.0 0.0
07:34 20.5 18.5 88 1021.4 4.5 NE 6.0 0.0 0.0
07:35 20.5 18.5 88 1021.3 3.8 NE 6.0 0.0 0.0
07:36 20.5 18.5 88 1021.3 3.8 NE 6.0 0.0 0.0
07:37 20.5 18.5 88 1021.3 4.5 NE 6.0 0.0 0.0
07:38 20.6 18.6 88 1021.3 5.4 E 6.0 0.0 0.0
07:39 20.6 18.6 88 1021.3 6.0 E 6.0 0.0 0.0
07:40 20.6 18.6 88 1021.3 5.4 NE 6.0 0.0 0.0
07:42 20.6 18.6 88 1021.3 6.0 NE 6.0 0.0 0.0
07:43 20.6 18.6 88 1021.5 3.1 NW 6.0 0.0 0.0
07:44 20.6 18.6 88 1021.3 5.4 E 6.0 0.0 0.0
07:45 20.6 18.6 88 1021.3 5.4 SW 6.0 0.0 0.0
07:46 20.6 18.6 88 1021.5 6.9 NE 6.9 0.0 0.0
07:47 20.6 18.6 88 1021.3 5.4 NE 6.9 0.0 0.0
07:48 20.6 18.6 88 1021.3 5.4 NE 6.9 0.0 0.0
07:49 20.6 18.6 88 1021.4 6.0 NW 6.9 0.0 0.0
07:50 20.6 18.6 88 1021.3 5.4 N 6.9 0.0 0.0
07:51 20.7 18.7 88 1021.3 5.4 NW 6.9 0.0 0.0
07:52 20.6 18.6 88 1021.4 4.5 N 6.9 0.0 0.0
07:53 20.7 18.7 88 1021.4 6.0 NE 6.9 0.0 0.0
07:54 20.7 18.7 88 1021.2 3.8 NE 6.9 0.0 0.0
07:55 20.7 18.7 88 1021.2 4.5 NE 6.9 0.0 0.0
07:57 20.7 18.7 88 1021.4 6.9 NE 6.9 0.0 0.0
07:58 20.7 18.7 88 1021.3 6.9 N 6.9 0.0 0.0
07:59 20.7 18.7 88 1021.3 5.4 N 6.9 0.0 0.0
08:00 20.7 18.8 89 1021.4 6.0 NE 6.9 0.0 0.0
08:01 20.7 18.8 89 1021.3 6.9 E 6.9 0.0 0.0
08:02 20.7 18.8 89 1021.4 6.9 E 6.9 0.0 0.0
08:03 20.7 18.8 89 1021.5 9.2 NE 9.2 0.0 0.0
08:04 20.7 18.8 89 1021.4 8.3 NE 9.2 0.0 0.0
08:05 20.7 18.8 89 1021.4 6.0 W 9.2 0.0 0.0
08:06 20.7 18.8 89 1021.5 7.6 E 9.2 0.0 0.0
08:07 20.7 18.8 89 1021.5 7.6 NW 9.2 0.0 0.0
08:08 20.7 18.8 89 1021.4 7.6 S 9.2 0.0 0.0
08:09 20.7 18.8 89 1021.5 6.9 NE 9.2 0.0 0.0
08:11 20.7 18.8 89 1021.5 8.3 NE 9.2 0.0 0.0
08:12 20.7 18.8 89 1021.4 8.3 NE 9.2 0.0 0.0
08:13 20.7 18.8 89 1021.2 6.0 NE 9.2 0.0 0.0
08:14 20.7 18.8 89 1021.5 6.9 N 8.3 0.0 0.0
08:15 20.7 18.8 89 1021.5 6.9 N 8.3 0.0 0.0
08:16 20.7 19.0 90 1021.3 5.4 NE 8.3 0.0 0.0
08:17 20.7 19.0 90 1021.3 7.6 W 8.3 0.0 0.0
08:18 20.7 19.0 90 1021.4 6.0 NW 8.3 0.0 0.0
08:19 20.7 19.0 90 1021.4 4.5 SW 8.3 0.0 0.0
08:20 20.7 19.0 90 1021.5 4.5 NE 8.3 0.0 0.0
08:22 20.7 19.0 90 1021.5 6.9 E 7.6 0.0 0.0
08:23 20.7 19.0 90 1021.5 6.0 W 7.6 0.0 0.0
08:24 20.7 19.0 90 1021.3 5.4 E 7.6 0.0 0.0
08:25 20.7 19.0 90 1021.5 4.5 NW 7.6 0.0 0.0
08:26 20.7 19.0 90 1021.4 4.5 NW 7.6 0.0 0.0
08:27 20.7 19.0 90 1021.2 6.0 NE 7.6 0.0 0.0
08:28 20.7 19.0 90 1021.6 6.0 NE 7.6 0.0 0.0
08:29 20.7 19.0 90 1021.5 6.9 N 6.9 0.0 0.0
08:30 20.7 19.0 90 1021.2 6.9 E 6.9 0.0 0.0
08:31 20.7 19.0 90 1021.5 5.4 N 6.9 0.0 0.0
08:32 20.7 19.0 90 1021.2 4.5 SE 6.9 0.0 0.0
08:33 20.7 19.0 90 1021.5 6.9 NE 6.9 0.0 0.0
08:34 20.7 19.0 90 1021.6 6.0 E 6.9 0.0 0.0
08:36 20.7 19.0 90 1021.2 7.6 N 7.6 0.0 0.0
08:37 20.7 19.0 90 1021.3 6.9 SE 7.6 0.0 0.0
08:38 20.7 19.0 90 1021.3 6.9 SE 7.6 0.0 0.0
08:39 20.7 19.0 90 1021.3 5.4 NE 7.6 0.0 0.0
08:40 20.7 19.0 90 1021.5 4.5 NE 7.6 0.0 0.0
08:41 20.7 19.0 90 1021.3 6.0 NE 7.6 0.0 0.0
08:42 20.7 19.0 90 1021.4 7.6 NE 7.6 0.0 0.0
08:43 20.8 19.1 90 1021.5 4.5 E 7.6 0.0 0.0
08:44 20.8 19.1 90 1021.4 6.0 NE 7.6 0.0 0.0
08:45 20.8 19.1 90 1021.4 4.5 NE 7.6 0.0 0.0
08:46 20.8 19.1 90 1021.4 6.9 WNW 7.6 0.0 0.0
08:47 20.9 19.2 90 1021.3 4.5 NE 8.3 0.0 0.0
08:48 20.9 19.2 90 1021.5 9.8 NE 9.8 0.0 0.0
08:49 21.0 19.3 90 1021.4 9.8 NE 9.8 0.0 0.0
08:50 21.0 19.3 90 1021.4 7.6 SE 9.8 0.0 0.0
08:52 21.1 19.4 90 1021.3 7.6 S 9.8 0.0 0.0
08:53 21.2 19.3 89 1021.4 8.3 NE 9.8 0.0 0.0
08:54 21.2 19.3 89 1021.4 8.3 ENE 9.8 0.0 0.0
08:55 21.2 19.3 89 1021.5 8.3 NE 9.8 0.0 0.0
08:56 21.3 19.4 89 1021.4 8.3 NE 9.8 0.0 0.0
08:57 21.3 19.4 89 1021.2 8.3 SW 9.8 0.0 0.0
08:58 21.3 19.4 89 1021.2 8.3 SW 9.8 0.0 0.0
08:59 21.4 19.3 88 1021.3 10.7 NE 10.7 0.0 0.0
09:00 21.4 19.2 87 1021.3 9.8 N 10.7 0.0 0.0
09:01 21.4 19.2 87 1021.2 9.8 N 10.7 0.0 0.0
09:02 21.4 19.2 87 1021.3 9.8 N 10.7 0.0 0.0
09:03 21.4 19.2 87 1021.2 9.8 N 10.7 0.0 0.0
09:04 21.4 19.2 87 1021.2 9.8 N 10.7 0.0 0.0
09:05 21.4 19.2 87 1021.3 9.8 N 10.7 0.0 0.0
09:06 21.7 19.1 85 1021.3 5.4 E 10.7 0.0 0.0
09:08 21.8 19.2 85 1021.4 9.8 N 10.7 0.0 0.0
09:09 21.8 19.2 85 1021.2 7.6 S 10.7 0.0 0.0
09:10 21.9 19.3 85 1021.3 9.2 E 9.8 0.0 0.0
09:11 21.9 19.3 85 1021.2 9.2 E 9.8 0.0 0.0
09:12 22.0 19.4 85 1021.3 6.9 NE 9.8 0.0 0.0
09:13 22.0 19.4 85 1021.3 6.9 NW 9.8 0.0 0.0
09:14 22.1 19.5 85 1021.3 9.8 NE 9.8 0.0 0.0
09:15 22.1 19.5 85 1021.6 7.6 NE 9.8 0.0 0.0
09:16 22.2 19.4 84 1021.3 11.4 E 11.4 0.0 0.0
09:17 22.2 19.4 84 1021.3 9.2 E 11.4 0.0 0.0
09:18 22.2 19.4 84 1021.4 8.3 NE 11.4 0.0 0.0
09:19 22.3 19.5 84 1021.4 7.6 NE 11.4 0.0 0.0
09:20 22.3 19.5 84 1021.5 4.5 NE 11.4 0.0 0.0
09:21 22.4 19.6 84 1021.5 8.3 NE 12.1 0.0 0.0
09:22 22.4 19.6 84 1021.5 10.7 NW 12.1 0.0 0.0
09:23 22.4 19.6 84 1021.5 9.2 SE 12.1 0.0 0.0
09:24 22.4 19.6 84 1021.2 11.4 SE 12.1 0.0 0.0
09:25 22.5 19.1 81 1021.7 8.3 NE 12.1 0.0 0.0
09:27 22.5 19.1 81 1021.4 9.2 E 12.1 0.0 0.0
09:28 22.5 19.1 81 1021.3 9.2 E 12.1 0.0 0.0
09:29 22.6 19.2 81 1021.4 6.0 S 12.1 0.0 0.0
09:30 22.6 19.2 81 1021.4 6.0 S 12.1 0.0 0.0
09:31 22.7 19.1 80 1021.4 6.9 E 12.1 0.0 0.0
09:32 22.7 19.1 80 1021.3 9.2 NE 11.4 0.0 0.0
09:33 22.7 19.1 80 1021.4 11.4 N 11.4 0.0 0.0
09:34 22.7 19.1 80 1021.5 11.4 NE 11.4 0.0 0.0
09:35 22.8 19.2 80 1021.3 7.6 E 11.4 0.0 0.0
09:36 22.8 19.2 80 1021.2 6.9 NW 11.4 0.0 0.0
09:37 22.8 19.2 80 1021.3 8.3 NE 11.4 0.0 0.0
09:38 22.9 19.3 80 1021.3 6.9 NNE 11.4 0.0 0.0
09:39 22.9 19.3 80 1021.4 7.6 SE 11.4 0.0 0.0
09:40 23.0 19.4 80 1021.5 4.5 NE 11.4 0.0 0.0
09:41 23.0 19.4 80 1021.2 11.4 N 11.4 0.0 0.0
09:42 23.0 19.4 80 1021.6 7.6 E 11.4 0.0 0.0
09:43 23.0 19.4 80 1021.4 9.8 W 11.4 0.0 0.0
09:44 23.0 19.4 80 1021.5 9.2 NW 11.4 0.0 0.0
09:46 23.1 19.3 79 1021.4 7.6 NE 11.4 0.0 0.0
09:47 23.1 19.3 79 1021.4 4.5 NW 11.4 0.0 0.0
09:48 23.1 19.3 79 1021.5 4.5 NE 11.4 0.0 0.0
09:49 23.1 19.3 79 1021.3 6.9 ESE 11.4 0.0 0.0
09:50 23.1 19.3 79 1021.4 6.9 NE 11.4 0.0 0.0
09:51 23.2 19.4 79 1021.3 9.8 SE 11.4 0.0 0.0
09:52 23.2 19.4 79 1021.5 9.8 NE 9.8 0.0 0.0
09:53 23.3 19.5 79 1021.5 8.3 E 9.8 0.0 0.0
09:54 23.3 19.5 79 1021.3 8.3 SE 9.8 0.0 0.0
09:55 23.3 19.5 79 1021.6 6.0 S 9.8 0.0 0.0
09:56 23.4 19.6 79 1021.5 9.8 NE 9.8 0.0 0.0
09:57 23.4 19.6 79 1021.4 9.8 E 9.8 0.0 0.0
09:58 23.4 19.6 79 1021.7 10.7 E 10.7 0.0 0.0
09:59 23.4 19.6 79 1021.6 5.4 NE 10.7 0.0 0.0
10:00 23.4 19.6 79 1021.4 5.4 NE 10.7 0.0 0.0
10:01 23.4 19.6 79 1021.2 8.3 E 10.7 0.0 0.0
10:02 23.4 19.6 79 1021.4 9.8 NE 10.7 0.0 0.0
10:03 23.4 19.6 79 1021.4 9.2 NNE 10.7 0.0 0.0
10:04 23.5 19.7 79 1021.3 8.3 NW 10.7 0.0 0.0
10:05 23.5 19.7 79 1021.4 6.0 S 10.7 0.0 0.0
10:07 23.5 19.7 79 1021.5 9.2 E 10.7 0.0 0.0
10:08 23.5 19.7 79 1021.3 9.8 NE 10.7 0.0 0.0
10:09 23.5 19.7 79 1021.3 7.6 N 9.8 0.0 0.0
10:10 23.5 19.7 79 1021.3 7.6 N 9.8 0.0 0.0
10:11 23.4 19.6 79 1021.4 7.6 NE 10.7 0.0 0.0
10:12 23.4 19.6 79 1021.5 7.6 NE 10.7 0.0 0.0
10:13 23.4 19.6 79 1021.4 8.3 NW 10.7 0.0 0.0
10:14 23.4 19.6 79 1021.4 10.7 NE 10.7 0.0 0.0
10:15 23.3 19.3 78 1021.4 8.3 SE 10.7 0.0 0.0
10:16 23.3 19.5 79 1021.6 6.0 ESE 10.7 0.0 0.0
10:17 23.3 19.5 79 1021.5 9.2 E 10.7 0.0 0.0
10:18 23.3 19.5 79 1021.5 12.1 NW 12.1 0.0 0.0
10:19 23.2 19.4 79 1021.6 5.4 E 12.1 0.0 0.0
10:20 23.2 19.4 79 1021.5 6.9 NE 12.1 0.0 0.0
10:21 23.2 19.4 79 1021.5 6.0 NE 12.1 0.0 0.0
10:22 23.2 19.4 79 1021.4 8.3 E 12.1 0.0 0.0
10:23 23.2 19.4 79 1021.6 6.0 E 12.1 0.0 0.0
10:24 23.2 19.4 79 1021.6 6.0 E 12.1 0.0 0.0
10:25 23.2 19.4 79 1021.5 6.9 W 12.1 0.0 0.0
10:26 23.2 19.4 79 1021.5 6.9 W 12.1 0.0 0.0
10:27 23.3 19.5 79 1021.4 10.7 E 12.1 0.0 0.0
10:28 23.3 19.5 79 1021.3 10.7 E 12.1 0.0 0.0
10:30 23.4 19.8 80 1021.4 9.8 NW 10.7 0.0 0.0
10:31 23.4 19.6 79 1021.4 6.0 NE 10.7 0.0 0.0
10:32 23.5 19.7 79 1021.5 9.2 N 10.7 0.0 0.0
10:33 23.5 19.7 79 1021.3 9.2 NE 10.7 0.0 0.0
10:34 23.5 19.7 79 1021.5 9.2 S 10.7 0.0 0.0
10:35 23.5 19.5 78 1021.3 6.0 N 10.7 0.0 0.0
10:36 23.6 19.6 78 1021.5 6.0 W 10.7 0.0 0.0
10:37 23.6 19.6 78 1021.2 9.2 NE 10.7 0.0 0.0
10:38 23.6 19.6 78 1021.4 9.2 SW 10.7 0.0 0.0
10:39 23.6 19.6 78 1021.4 9.2 E 9.8 0.0 0.0
10:40 23.6 19.6 78 1021.3 9.2 E 9.8 0.0 0.0
10:41 23.7 19.7 78 1021.3 10.7 E 10.7 0.0 0.0
10:42 23.7 19.4 77 1021.4 8.3 NE 10.7 0.0 0.0
10:43 23.8 19.5 77 1021.6 5.4 E 10.7 0.0 0.0
10:44 23.8 19.5 77 1021.4 11.4 NE 11.4 0.0 0.0
10:45 23.9 19.6 77 1021.4 11.4 NW 11.4 0.0 0.0
10:46 23.9 19.6 77 1021.4 11.4 NE 11.4 0.0 0.0
10:48 24.0 19.5 76 1021.5 8.3 NE 11.4 0.0 0.0
10:49 24.1 19.6 76 1021.6 4.5 N 11.4 0.0 0.0
10:50 24.2 19.7 76 1021.4 5.4 NNE 11.4 0.0 0.0
10:51 24.2 19.7 76 1021.5 6.0 E 11.4 0.0 0.0
10:52 24.3 19.6 75 1021.4 6.0 N 11.4 0.0 0.0
10:53 24.3 19.6 75 1021.5 6.9 NE 11.4 0.0 0.0
10:54 24.4 19.7 75 1021.6 6.9 N 11.4 0.0 0.0
10:55 24.6 19.7 74 1021.5 3.8 SE 11.4 0.0 0.0
10:56 24.6 19.7 74 1021.3 4.5 E 11.4 0.0 0.0
10:57 24.7 19.8 74 1021.4 9.2 NE 11.4 0.0 0.0
10:58 24.8 19.9 74 1021.4 7.6 NE 9.2 0.0 0.0
10:59 24.9 19.8 73 1021.5 8.3 NE 9.2 0.0 0.0
11:00 24.9 19.8 73 1021.4 3.8 S 9.2 0.0 0.0
11:01 24.9 19.8 73 1021.4 3.8 S 9.2 0.0 0.0
11:02 24.9 19.8 73 1021.4 3.8 S 9.2 0.0 0.0
11:03 24.9 19.8 73 1021.6 3.8 S 9.2 0.0 0.0
11:04 24.9 19.8 73 1021.5 3.8 S 9.2 0.0 0.0
11:05 24.9 19.8 73 1021.5 3.8 S 9.2 0.0 0.0
11:07 25.3 19.9 72 1021.4 10.7 E 10.7 0.0 0.0
11:08 25.3 19.9 72 1021.4 10.7 N 10.7 0.0 0.0
11:09 25.4 19.8 71 1021.5 5.4 NW 10.7 0.0 0.0
11:10 25.4 19.8 71 1021.5 5.4 E 10.7 0.0 0.0
11:11 25.4 19.8 71 1021.3 6.9 W 10.7 0.0 0.0
11:12 25.5 19.9 71 1021.3 5.4 S 10.7 0.0 0.0
11:13 25.5 19.9 71 1021.3 5.4 SW 10.7 0.0 0.0
11:14 25.5 19.7 70 1021.4 4.5 N 10.7 0.0 0.0
11:15 25.6 19.7 70 1021.4 6.0 N 10.7 0.0 0.0
11:16 25.6 19.7 70 1021.3 6.0 N 10.7 0.0 0.0
11:17 25.6 19.7 70 1021.3 5.4 E 10.7 0.0 0.0
11:18 25.6 19.7 70 1021.5 4.5 S 6.9 0.0 0.0
11:19 25.6 19.5 69 1021.5 5.4 NW 6.9 0.0 0.0
11:20 25.6 19.5 69 1021.5 5.4 SE 6.9 0.0 0.0
11:22 25.5 19.4 69 1021.3 7.6 NE 7.6 0.0 0.0
11:23 25.5 19.4 69 1021.6 6.9 N 7.6 0.0 0.0
11:24 25.4 19.3 69 1021.6 6.9 NE 7.6 0.0 0.0
11:25 25.4 19.3 69 1021.5 3.8 N 7.6 0.0 0.0
11:26 25.3 19.2 69 1021.5 3.1 NW 7.6 0.0 0.0
11:27 25.3 19.2 69 1021.5 6.0 NW 7.6 0.0 0.0
11:28 25.3 19.2 69 1021.5 5.4 E 7.6 0.0 0.0
11:29 25.2 19.1 69 1021.4 6.9 N 7.6 0.0 0.0
11:30 25.2 19.1 69 1021.5 6.9 E 7.6 0.0 0.0
11:31 25.2 19.1 69 1021.5 9.8 S 9.8 0.0 0.0
11:32 25.2 19.1 69 1021.6 4.5 SW 9.8 0.0 0.0
11:33 25.2 19.4 70 1021.4 6.9 NE 9.8 0.0 0.0
11:34 25.3 19.2 69 1021.4 9.8 NE 9.8 0.0 0.0
11:35 25.3 19.2 69 1021.5 9.2 NE 9.8 0.0 0.0
11:36 25.3 19.2 69 1021.7 6.0 SW 9.8 0.0 0.0
11:37 25.4 19.3 69 1021.5 6.0 E 9.8 0.0 0.0
11:38 25.5 19.4 69 1021.5 6.9 W 9.8 0.0 0.0
11:39 25.5 19.4 69 1021.6 7.6 NW 9.8 0.0 0.0
11:40 25.6 19.5 69 1021.5 9.8 NE 9.8 0.0 0.0
11:42 25.7 19.6 69 1021.3 6.0 N 9.8 0.0 0.0
11:43 25.7 19.6 69 1021.4 6.0 S 9.8 0.0 0.0
11:44 25.7 19.6 69 1021.4 6.0 E 9.8 0.0 0.0
11:45 25.7 19.4 68 1021.5 9.8 E 9.8 0.0 0.0
11:46 25.8 19.5 68 1021.5 6.9 SW 9.8 0.0 0.0
11:47 25.8 19.5 68 1021.6 8.3 E 9.8 0.0 0.0
11:48 25.9 19.6 68 1021.5 6.9 E 9.8 0.0 0.0
11:49 25.9 19.6 68 1021.5 6.9 N 9.8 0.0 0.0
11:50 25.9 19.6 68 1021.5 5.4 E 9.8 0.0 0.0
11:51 26.0 19.7 68 1021.6 7.6 NE 9.8 0.0 0.0
11:52 26.1 19.8 68 1021.6 4.5 E 9.8 0.0 0.0
11:53 26.2 20.1 69 1021.5 6.0 NE 9.8 0.0 0.0
11:54 26.3 19.9 68 1021.5 6.0 N 9.8 0.0 0.0
11:55 26.3 19.9 68 1021.5 3.8 SE 8.3 0.0 0.0
11:56 26.4 20.0 68 1021.4 4.5 NE 8.3 0.0 0.0
11:58 26.5 19.9 67 1021.5 8.3 E 8.3 0.0 0.0
11:59 26.5 19.7 66 1021.6 8.3 SE 8.3 0.0 0.0
12:00 26.5 19.7 66 1021.4 8.3 N 8.3 0.0 0.0
12:01 26.5 19.7 66 1021.5 4.5 NW 8.3 0.0 0.0
12:02 26.5 19.9 67 1021.6 8.3 E 8.3 0.0 0.0
12:03 26.6 19.8 66 1021.6 5.4 NE 8.3 0.0 0.0
12:04 26.6 19.8 66 1021.5 6.9 NE 8.3 0.0 0.0
12:05 26.6 20.0 67 1021.5 5.4 E 8.3 0.0 0.0
12:06 26.7 20.1 67 1021.4 6.0 E 8.3 0.0 0.0
12:07 26.7 20.1 67 1021.5 4.5 NE 8.3 0.0 0.0
12:08 26.8 20.2 67 1021.4 6.0 NE 8.3 0.0 0.0
12:09 26.8 19.9 66 1021.4 5.4 N 8.3 0.0 0.0
12:10 26.8 19.9 66 1021.5 3.8 N 8.3 0.0 0.0
12:11 26.9 20.0 66 1021.5 5.4 E 8.3 0.0 0.0
12:12 26.9 20.0 66 1021.6 6.0 NW 8.3 0.0 0.0
12:13 26.9 20.0 66 1021.4 6.0 E 6.9 0.0 0.0
12:14 26.9 20.0 66 1021.4 10.7 W 10.7 0.0 0.0
12:16 26.9 20.0 66 1021.3 6.0 NE 10.7 0.0 0.0
12:17 26.9 20.0 66 1021.5 5.4 SE 10.7 0.0 0.0
12:18 26.9 20.0 66 1021.6 7.6 N 10.7 0.0 0.0
12:19 26.9 20.0 66 1021.6 5.4 NE 10.7 0.0 0.0
12:20 26.9 19.8 65 1021.6 5.4 SSE 10.7 0.0 0.0
12:21 26.9 19.8 65 1021.5 7.6 N 10.7 0.0 0.0
12:22 26.9 20.0 66 1021.5 6.9 NE 10.7 0.0 0.0
12:23 26.9 20.0 66 1021.5 9.2 N 10.7 0.0 0.0
12:24 26.9 20.0 66 1021.6 9.2 NE 10.7 0.0 0.0
12:25 26.9 20.0 66 1021.6 3.1 N 9.8 0.0 0.0
12:26 26.8 19.9 66 1021.7 3.8 NE 9.2 0.0 0.0
12:27 26.8 19.9 66 1021.5 6.9 NE 9.2 0.0 0.0
12:28 26.8 19.9 66 1021.6 6.9 WNW 9.2 0.0 0.0
12:29 26.8 19.9 66 1021.7 4.5 N 9.2 0.0 0.0
12:30 26.8 19.9 66 1021.4 4.5 W 9.2 0.0 0.0
12:31 26.8 19.9 66 1021.6 3.1 NE 9.2 0.0 0.0
12:32 26.8 20.2 67 1021.6 5.4 N 9.2 0.0 0.0
12:33 26.9 20.3 67 1021.6 6.0 SE 9.2 0.0 0.0
12:35 26.9 20.3 67 1021.5 6.0 NW 6.9 0.0 0.0
12:36 27.0 20.4 67 1021.6 4.5 S 6.9 0.0 0.0
12:37 27.0 20.4 67 1021.6 6.0 N 6.9 0.0 0.0
12:38 27.0 20.4 67 1021.6 6.0 N 6.9 0.0 0.0
12:39 27.1 20.5 67 1021.5 2.2 E 6.9 0.0 0.0
12:40 27.1 20.5 67 1021.4 3.8 E 6.9 0.0 0.0
12:41 27.1 20.5 67 1021.2 3.8 SW 6.9 0.0 0.0
12:42 27.1 20.5 67 1021.4 4.5 W 6.9 0.0 0.0
12:43 27.1 20.7 68 1021.3 4.5 NW 6.9 0.0 0.0
12:44 27.1 20.7 68 1021.4 3.8 NE 6.9 0.0 0.0
12:45 27.2 20.8 68 1021.3 6.9 NE 6.9 0.0 0.0
12:46 27.2 20.8 68 1021.5 6.0 E 6.9 0.0 0.0
12:47 27.2 20.6 67 1021.4 10.7 NE 10.7 0.0 0.0
12:48 27.2 20.6 67 1021.5 8.3 NE 10.7 0.0 0.0
12:49 27.2 20.3 66 1021.5 8.3 W 10.7 0.0 0.0
12:50 27.2 20.6 67 1021.3 3.1 E 10.7 0.0 0.0
12:51 27.2 20.6 67 1021.5 4.5 N 10.7 0.0 0.0
12:52 27.2 20.3 66 1021.5 4.5 NW 10.7 0.0 0.0
12:54 27.1 20.2 66 1021.4 6.0 N 10.7 0.0 0.0
12:55 27.1 20.5 67 1021.6 7.6 NW 10.7 0.0 0.0
12:56 27.2 20.6 67 1021.5 4.5 E 10.7 0.0 0.0
12:57 27.2 20.6 67 1021.6 6.9 NE 10.7 0.0 0.0
12:58 27.2 20.6 67 1021.5 7.6 W 9.2 0.0 0.0
12:59 27.2 20.3 66 1021.3 7.6 N 9.2 0.0 0.0
13:00 27.3 20.7 67 1021.3 8.3 NE 8.3 0.0 0.0
13:01 27.3 20.7 67 1021.1 8.3 NE 8.3 0.0 0.0
13:02 27.3 20.7 67 1021.2 8.3 NE 8.3 0.0 0.0
13:03 27.3 20.7 67 1021.4 8.3 NE 8.3 0.0 0.0
13:04 27.3 20.7 67 1021.2 8.3 NE 8.3 0.0 0.0
13:05 27.3 20.7 67 1021.3 8.3 NE 8.3 0.0 0.0
13:06 27.3 20.7 67 1021.2 8.3 NE 8.3 0.0 0.0
13:07 27.5 19.3 61 1021.1 8.3 NE 8.3 0.0 0.0
13:08 27.5 19.3 61 1021.3 3.8 E 8.3 0.0 0.0
13:09 27.5 19.6 62 1021.2 3.8 E 8.3 0.0 0.0
13:10 27.5 19.6 62 1021.4 4.5 SW 8.3 0.0 0.0
13:11 27.5 19.6 62 1021.4 4.5 NE 8.3 0.0 0.0
13:13 27.5 19.9 63 1021.3 3.8 E 8.3 0.0 0.0
13:14 27.5 19.9 63 1021.2 5.4 SW 8.3 0.0 0.0
13:15 27.5 19.9 63 1021.3 5.4 NE 8.3 0.0 0.0
13:16 27.5 19.9 63 1021.3 6.0 N 8.3 0.0 0.0
13:18 27.5 19.9 63 1021.3 3.8 E 6.9 0.0 0.0
13:19 27.5 19.9 63 1021.1 3.8 NE 6.9 0.0 0.0
13:20 27.5 19.9 63 1021.1 5.4 SW 6.9 0.0 0.0
13:21 27.6 19.9 63 1021.3 7.6 NE 7.6 0.0 0.0
13:22 27.5 19.6 62 1021.3 8.3 NW 8.3 0.0 0.0
13:23 27.5 19.6 62 1021.1 6.9 SE 8.3 0.0 0.0
13:24 27.5 19.6 62 1021.1 6.9 E 8.3 0.0 0.0
13:25 27.5 19.6 62 1021.4 12.1 N 12.1 0.0 0.0
13:27 27.4 20.5 66 1021.1 10.7 N 12.1 0.0 0.0
13:28 27.4 20.5 66 1021.1 10.7 S 12.1 0.0 0.0
13:29 27.4 20.8 67 1021.2 9.2 E 12.1 0.0 0.0
13:30 27.4 20.8 67 1021.2 9.2 E 12.1 0.0 0.0
13:31 27.3 20.7 67 1021.2 3.8 NE 12.1 0.0 0.0
13:32 27.3 20.7 67 1021.2 4.5 SE 12.1 0.0 0.0
13:33 27.3 20.7 67 1020.7 5.4 N 12.1 0.0 0.0
13:34 27.3 20.9 68 1021.3 2.2 W 12.1 0.0 0.0
13:35 27.3 20.9 68 1021.3 4.5 NE 12.1 0.0 0.0
13:36 27.3 20.9 68 1021.2 7.6 N 10.7 0.0 0.0
13:37 27.4 21.0 68 1021.3 9.2 E 10.7 0.0 0.0
13:38 27.4 21.0 68 1021.1 8.3 N 9.2 0.0 0.0
13:39 27.4 21.0 68 1021.4 6.0 NE 9.2 0.0 0.0
13:40 27.4 21.0 68 1021.1 6.0 NW 9.2 0.0 0.0
13:41 27.5 20.1 64 1020.9 5.4 E 9.2 0.0 0.0
13:42 27.5 20.1 64 1021.2 6.9 N 9.2 0.0 0.0
13:44 27.6 20.2 64 1021.2 6.0 E 9.2 0.0 0.0
13:45 27.7 20.6 65 1021.1 6.9 SE 9.2 0.0 0.0
13:46 27.7 20.6 65 1021.1 6.9 SE 9.2 0.0 0.0
13:47 27.8 20.4 64 1021.2 6.0 E 9.2 0.0 0.0
13:48 27.8 20.1 63 1021.2 6.0 NE 8.3 0.0 0.0
13:49 27.8 20.1 63 1021.0 8.3 NE 8.3 0.0 0.0
13:50 27.9 20.2 63 1021.0 6.0 E 8.3 0.0 0.0
13:51 28.0 20.3 63 1020.9 8.3 NE 8.3 0.0 0.0
13:52 28.1 20.4 63 1021.1 9.8 NE 9.8 0.0 0.0
13:53 28.1 20.4 63 1021.2 9.8 NE 9.8 0.0 0.0
13:54 28.2 20.3 62 1021.0 9.8 E 9.8 0.0 0.0
13:55 28.2 20.3 62 1021.1 7.6 E 10.7 0.0 0.0
13:56 28.3 20.4 62 1021.0 7.6 S 10.7 0.0 0.0
13:57 28.4 20.4 62 1021.2 8.3 E 10.7 0.0 0.0
13:58 28.4 20.4 62 1021.0 4.5 NE 10.7 0.0 0.0
13:59 28.5 20.5 62 1021.0 4.5 N 10.7 0.0 0.0
14:00 28.5 20.5 62 1021.2 6.0 NE 10.7 0.0 0.0
14:01 28.6 20.6 62 1020.9 6.0 SE 10.7 0.0 0.0
14:03 28.6 20.4 61 1021.2 3.8 SSE 10.7 0.0 0.0
14:04 28.6 20.4 61 1021.0 5.4 NE 10.7 0.0 0.0
14:05 28.5 20.3 61 1021.0 4.5 SW 9.2 0.0 0.0
14:06 28.5 20.3 61 1021.2 4.5 NW 9.2 0.0 0.0
14:07 28.4 20.2 61 1021.1 3.8 N 9.2 0.0 0.0
14:08 28.4 19.9 60 1021.0 3.8 SW 9.2 0.0 0.0
14:09 28.4 19.9 60 1021.0 6.0 E 9.2 0.0 0.0
14:10 28.3 19.8 60 1021.0 6.0 N 9.2 0.0 0.0
14:11 28.3 20.1 61 1021.0 5.4 W 9.2 0.0 0.0
14:12 28.3 20.1 61 1021.1 9.2 NW 9.2 0.0 0.0
14:13 28.3 20.1 61 1020.9 7.6 N 9.2 0.0 0.0
14:14 28.2 19.7 60 1021.1 4.5 NW 9.2 0.0 0.0
14:15 28.2 19.7 60 1021.1 4.5 NE 9.2 0.0 0.0
14:16 28.1 19.6 60 1021.0 3.1 S 9.2 0.0 0.0
14:17 28.1 19.6 60 1020.9 4.5 NW 9.2 0.0 0.0
14:18 28.1 19.6 60 1021.0 3.8 W 9.2 0.0 0.0
14:20 28.0 19.5 60 1021.1 3.8 S 9.2 0.0 0.0
14:21 27.9 19.4 60 1021.1 4.5 NW 9.2 0.0 0.0
14:22 27.9 19.4 60 1021.1 4.5 NW 9.2 0.0 0.0
14:23 27.8 19.4 60 1020.8 6.9 NE 7.6 0.0 0.0
14:24 27.8 19.4 60 1020.8 9.2 E 9.2 0.0 0.0
14:25 27.7 19.3 60 1021.0 4.5 NNW 9.2 0.0 0.0
14:26 27.7 19.3 60 1020.8 3.8 SE 9.2 0.0 0.0
14:27 27.6 19.2 60 1021.0 6.9 NE 9.2 0.0 0.0
14:28 27.6 19.2 60 1021.1 11.4 SW 11.4 0.0 0.0
14:29 27.6 19.2 60 1021.1 11.4 WNW 11.4 0.0 0.0
14:30 27.5 19.3 61 1021.1 6.9 N 11.4 0.0 0.0
14:31 27.5 19.1 60 1020.9 3.8 W 11.4 0.0 0.0
14:32 27.5 19.1 60 1020.9 3.8 W 11.4 0.0 0.0
14:33 27.4 20.0 64 1021.2 7.6 SW 11.4 0.0 0.0
14:34 27.4 20.0 64 1021.1 7.6 W 11.4 0.0 0.0
14:35 27.4 20.0 64 1021.1 6.9 NE 11.4 0.0 0.0
14:36 27.4 20.0 64 1021.1 5.4 SE 11.4 0.0 0.0
14:38 27.3 20.2 65 1020.9 6.0 SE 11.4 0.0 0.0
14:39 27.3 20.2 65 1021.0 5.4 NE 7.6 0.0 0.0
14:40 27.3 20.2 65 1020.8 5.4 S 7.6 0.0 0.0
14:41 27.3 20.2 65 1020.9 4.5 NE 7.6 0.0 0.0
14:42 27.3 20.2 65 1020.8 5.4 N 7.6 0.0 0.0
14:43 27.3 20.2 65 1020.8 6.0 NW 7.6 0.0 0.0
14:44 27.3 20.2 65 1020.7 4.5 ENE 7.6 0.0 0.0
14:45 27.3 20.2 65 1020.9 6.9 NE 6.9 0.0 0.0
14:46 27.3 20.4 66 1020.8 6.9 SE 6.9 0.0 0.0
14:47 27.3 20.4 66 1021.0 4.5 NE 6.9 0.0 0.0
14:48 27.4 20.5 66 1020.7 6.0 NE 6.9 0.0 0.0
14:49 27.4 20.5 66 1020.9 5.4 S 6.9 0.0 0.0
14:50 27.4 20.5 66 1020.8 5.4 W 6.9 0.0 0.0
14:51 27.4 20.5 66 1020.8 3.8 N 6.9 0.0 0.0
14:52 27.5 19.6 62 1020.8 8.3 W 8.3 0.0 0.0
14:53 27.5 19.6 62 1020.8 4.5 NE 8.3 0.0 0.0
14:54 27.5 19.6 62 1020.8 5.4 E 8.3 0.0 0.0
14:56 27.5 19.6 62 1020.8 6.0 W 9.2 0.0 0.0
14:57 27.6 19.9 63 1021.0 6.0 E 9.2 0.0 0.0
14:58 27.6 19.9 63 1021.0 7.6 NE 9.2 0.0 0.0
14:59 27.7 20.0 63 1020.7 7.6 NE 9.2 0.0 0.0
15:00 27.7 20.0 63 1020.9 6.9 E 9.2 0.0 0.0
15:01 27.7 20.0 63 1020.6 6.9 E 9.2 0.0 0.0
15:02 27.7 20.0 63 1020.7 6.9 E 9.2 0.0 0.0
15:03 27.7 20.0 63 1020.8 6.9 E 9.2 0.0 0.0
15:04 27.7 20.0 63 1020.8 6.9 E 9.2 0.0 0.0
15:05 27.7 20.0 63 1020.7 6.9 E 9.2 0.0 0.0
15:06 27.7 20.0 63 1020.6 6.9 E 7.6 0.0 0.0
15:07 28.0 20.1 62 1020.5 9.8 E 9.8 0.0 0.0
15:08 28.0 19.8 61 1020.6 8.3 NE 9.8 0.0 0.0
15:09 28.0 19.8 61 1020.6 5.4 S 9.8 0.0 0.0
15:10 28.1 19.9 61 1020.8 5.4 NE 9.8 0.0 0.0
15:11 28.1 19.9 61 1020.9 9.8 NE 9.8 0.0 0.0
15:12 28.1 19.9 61 1020.7 7.6 NE 9.8 0.0 0.0
15:14 28.2 20.0 61 1020.7 7.6 NE 9.8 0.0 0.0
15:15 28.2 20.0 61 1020.6 10.7 E 10.7 0.0 0.0
15:16 28.2 19.7 60 1020.7 10.7 NE 10.7 0.0 0.0
15:17 28.2 19.7 60 1020.5 9.2 NE 10.7 0.0 0.0
15:19 28.1 19.6 60 1020.6 7.6 NE 10.7 0.0 0.0
15:20 28.1 19.6 60 1020.7 11.4 SE 11.4 0.0 0.0
15:21 28.1 19.6 60 1020.6 4.5 N 11.4 0.0 0.0
15:22 28.1 19.6 60 1020.5 11.4 E 11.4 0.0 0.0
15:23 28.2 19.7 60 1020.6 6.0 NE 11.4 0.0 0.0
15:24 28.2 19.7 60 1020.6 3.8 NW 11.4 0.0 0.0
15:25 28.3 19.8 60 1020.4 5.4 E 11.4 0.0 0.0
15:26 28.4 19.9 60 1020.5 10.7 NE 11.4 0.0 0.0
15:27 28.4 19.6 59 1020.5 10.7 NE 11.4 0.0 0.0
15:28 28.3 19.6 59 1020.5 9.8 ENE 11.4 0.0 0.0
15:29 28.2 19.5 59 1020.5 11.4 NE 11.4 0.0 0.0
15:31 28.2 19.5 59 1020.7 4.5 NE 11.4 0.0 0.0
15:32 28.2 19.5 59 1020.5 9.2 E 11.4 0.0 0.0
15:33 28.1 19.1 58 1020.5 10.7 N 11.4 0.0 0.0
15:34 28.1 19.4 59 1020.5 9.2 N 11.4 0.0 0.0
15:35 28.1 19.4 59 1020.4 9.8 NE 11.4 0.0 0.0
15:36 28.1 19.4 59 1020.5 13.0 N 13.0 0.0 0.0
15:37 28.0 19.0 58 1020.5 13.0 E 13.0 0.0 0.0
15:38 28.0 19.0 58 1020.5 13.6 E 13.6 0.0 0.0
15:39 27.9 18.6 57 1020.5 9.8 N 13.6 0.0 0.0
15:40 27.9 18.6 57 1020.6 12.1 N 13.6 0.0 0.0
15:41 27.8 18.5 57 1020.5 7.6 NE 13.6 0.0 0.0
15:42 27.8 18.5 57 1020.4 12.1 N 13.6 0.0 0.0
15:43 27.7 18.7 58 1020.4 9.2 NE 13.6 0.0 0.0
15:44 27.7 18.7 58 1020.5 9.2 NE 13.6 0.0 0.0
15:45 27.7 19.0 59 1020.4 6.9 NE 13.6 0.0 0.0
15:46 27.7 19.0 59 1020.4 9.8 E 13.6 0.0 0.0
15:48 27.8 19.1 59 1020.5 8.3 SE 13.0 0.0 0.0
15:49 27.8 19.1 59 1020.3 11.4 E 12.1 0.0 0.0
15:50 27.8 19.1 59 1020.2 11.4 E 12.1 0.0 0.0
15:51 27.8 19.1 59 1020.2 11.4 E 12.1 0.0 0.0
15:52 27.8 19.1 59 1020.2 11.4 E 12.1 0.0 0.0
15:53 27.8 19.1 59 1020.2 11.4 E 12.1 0.0 0.0
15:54 27.9 19.2 59 1020.5 9.8 SSE 12.1 0.0 0.0
15:55 28.0 19.3 59 1020.5 9.8 N 12.1 0.0 0.0
15:56 28.0 19.3 59 1020.2 9.2 NE 11.4 0.0 0.0
15:57 28.0 19.3 59 1020.3 14.5 E 14.5 0.0 0.0
15:58 28.0 19.0 58 1020.5 12.1 E 14.5 0.0 0.0
15:59 27.9 18.6 57 1020.3 8.3 NNE 14.5 0.0 0.0
16:00 27.9 18.6 57 1020.5 11.4 NE 14.5 0.0 0.0
16:01 27.8 18.5 57 1020.4 11.4 N 14.5 0.0 0.0
16:02 27.8 18.8 58 1020.3 6.9 NE 14.5 0.0 0.0
16:03 27.8 18.8 58 1020.3 12.1 E 14.5 0.0 0.0
16:05 27.8 18.8 58 1020.4 10.7 E 14.5 0.0 0.0
16:06 27.8 18.8 58 1020.3 8.3 E 14.5 0.0 0.0
16:07 27.8 18.5 57 1020.5 13.0 NE 14.5 0.0 0.0
16:08 27.8 18.5 57 1020.2 12.1 SE 13.0 0.0 0.0
16:09 27.8 18.5 57 1020.5 7.6 SE 13.0 0.0 0.0
16:10 27.8 18.8 58 1020.4 9.8 NW 13.0 0.0 0.0
16:11 27.7 18.7 58 1020.4 6.9 E 13.0 0.0 0.0
16:12 27.8 18.8 58 1020.1 9.2 NE 13.0 0.0 0.0
16:13 27.8 18.8 58 1020.5 9.8 SW 13.0 0.0 0.0
16:14 27.8 18.8 58 1020.4 13.6 E 13.6 0.0 0.0
16:15 27.7 18.4 57 1020.3 13.0 N 13.6 0.0 0.0
16:16 27.7 18.7 58 1020.5 9.8 NE 13.6 0.0 0.0
16:17 27.7 18.7 58 1020.4 9.8 N 13.6 0.0 0.0
16:18 27.7 18.7 58 1020.3 12.1 NE 13.6 0.0 0.0
16:19 27.7 18.7 58 1020.5 12.1 SW 13.6 0.0 0.0
16:20 27.7 18.7 58 1020.7 9.8 NE 13.6 0.0 0.0
16:21 27.7 18.7 58 1020.3 11.4 E 13.6 0.0 0.0
16:23 27.7 18.7 58 1020.2 9.2 NE 13.6 0.0 0.0
16:24 27.6 18.6 58 1020.3 8.3 NE 13.0 0.0 0.0
16:25 27.6 18.6 58 1020.4 10.7 E 13.0 0.0 0.0
16:26 27.6 18.6 58 1020.3 10.7 E 13.0 0.0 0.0
16:27 27.6 18.6 58 1020.4 6.9 E 13.0 0.0 0.0
16:28 27.6 18.6 58 1020.5 11.4 SE 13.0 0.0 0.0
16:29 27.6 18.6 58 1020.1 9.8 E 13.0 0.0 0.0
16:30 27.6 18.6 58 1020.3 9.8 NE 13.0 0.0 0.0
16:31 27.6 18.6 58 1020.4 9.8 NW 13.0 0.0 0.0
16:32 27.6 18.6 58 1020.4 9.2 N 13.0 0.0 0.0
16:33 27.6 18.6 58 1020.3 9.2 N 12.1 0.0 0.0
16:34 27.6 18.6 58 1020.4 11.4 E 12.1 0.0 0.0
16:35 27.7 19.0 59 1020.3 10.7 NE 12.1 0.0 0.0
16:36 27.7 19.0 59 1020.2 6.0 N 12.1 0.0 0.0
16:37 27.7 19.0 59 1020.3 6.0 N 11.4 0.0 0.0
16:38 27.8 19.1 59 1020.2 6.0 E 11.4 0.0 0.0
16:39 27.8 19.1 59 1020.2 6.9 SE 11.4 0.0 0.0
16:41 27.9 19.2 59 1020.2 6.0 E 11.4 0.0 0.0
16:42 28.0 19.5 60 1020.3 9.2 NE 11.4 0.0 0.0
16:43 28.0 19.5 60 1020.1 9.2 NE 11.4 0.0 0.0
16:44 28.0 19.3 59 1020.2 13.6 NE 13.6 0.0 0.0
16:45 28.0 19.3 59 1020.1 11.4 NE 13.6 0.0 0.0
16:46 28.0 19.3 59 1020.1 8.3 NE 13.6 0.0 0.0
16:47 28.0 19.3 59 1020.1 6.9 E 13.6 0.0 0.0
16:48 28.0 19.5 60 1020.0 9.2 E 13.6 0.0 0.0
16:49 28.0 19.5 60 1020.1 8.3 SE 13.6 0.0 0.0
16:50 28.0 19.5 60 1020.0 10.7 NE 13.6 0.0 0.0
16:51 27.9 19.4 60 1020.0 13.0 E 13.6 0.0 0.0
16:52 27.9 19.4 60 1020.0 13.0 E 13.6 0.0 0.0
16:53 27.7 19.3 60 1020.1 9.2 SE 13.6 0.0 0.0
16:54 27.7 19.3 60 1020.0 6.9 SE 13.6 0.0 0.0
16:55 27.6 19.2 60 1020.0 9.8 N 13.6 0.0 0.0
16:56 27.6 19.2 60 1020.1 9.8 NE 13.6 0.0 0.0
16:57 27.5 19.1 60 1020.2 11.4 NE 13.0 0.0 0.0
16:59 27.3 19.9 64 1020.0 9.2 NE 13.0 0.0 0.0
17:00 27.3 19.9 64 1019.9 8.3 NE 13.0 0.0 0.0
17:01 27.3 19.9 64 1020.2 8.3 NE 13.0 0.0 0.0
17:02 27.3 19.9 64 1020.2 8.3 NE 13.0 0.0 0.0
17:03 27.3 19.9 64 1020.1 8.3 NE 11.4 0.0 0.0
17:04 27.3 19.9 64 1019.9 8.3 NE 11.4 0.0 0.0
17:05 27.3 19.9 64 1019.9 8.3 NE 11.4 0.0 0.0
17:06 27.3 19.9 64 1020.1 8.3 NE 11.4 0.0 0.0
17:07 27.2 20.3 66 1019.9 9.8 N 11.4 0.0 0.0
17:08 27.3 20.4 66 1019.8 7.6 E 11.4 0.0 0.0
17:09 27.3 20.4 66 1019.9 9.2 N 9.8 0.0 0.0
17:10 27.3 20.4 66 1020.1 5.4 NNE 9.8 0.0 0.0
17:11 27.4 20.8 67 1020.0 6.9 E 9.8 0.0 0.0
17:12 27.4 20.8 67 1019.8 6.0 N 9.8 0.0 0.0
17:13 27.4 20.8 67 1020.0 9.2 NW 9.8 0.0 0.0
17:14 27.5 19.6 62 1019.8 9.8 E 9.8 0.0 0.0
17:15 27.5 19.6 62 1020.2 7.6 NE 9.8 0.0 0.0
17:16 27.5 19.6 62 1019.8 6.9 E 9.8 0.0 0.0
17:17 27.5 19.6 62 1019.9 6.0 N 9.8 0.0 0.0
17:18 27.5 19.6 62 1019.9 11.4 NE 11.4 0.0 0.0
17:20 27.5 19.6 62 1020.0 9.2 E 11.4 0.0 0.0
17:21 27.5 19.6 62 1019.7 5.4 NE 11.4 0.0 0.0
17:22 27.5 19.6 62 1019.8 9.8 NE 11.4 0.0 0.0
17:23 27.5 19.6 62 1019.8 8.3 NW 11.4 0.0 0.0
17:24 27.5 19.6 62 1019.8 7.6 NE 11.4 0.0 0.0
17:25 27.5 19.6 62 1019.9 9.2 NE 11.4 0.0 0.0
17:27 27.5 19.3 61 1019.6 8.3 E 11.4 0.0 0.0
17:28 27.4 20.3 65 1019.9 11.4 S 11.4 0.0 0.0
17:29 27.4 20.3 65 1019.8 6.9 NNE 11.4 0.0 0.0
17:30 27.4 20.3 65 1019.8 12.1 N 12.1 0.0 0.0
17:31 27.3 19.9 64 1019.7 8.3 SW 12.1 0.0 0.0
17:32 27.2 19.8 64 1019.8 8.3 W 12.1 0.0 0.0
17:33 27.2 19.8 64 1019.8 8.3 NE 12.1 0.0 0.0
17:34 27.1 19.7 64 1019.8 5.4 N 12.1 0.0 0.0
17:35 27.1 20.0 65 1019.8 9.8 NE 12.1 0.0 0.0
17:36 27.1 20.0 65 1019.7 13.0 NE 13.0 0.0 0.0
17:37 27.1 19.7 64 1019.5 13.0 NE 13.0 0.0 0.0
17:38 27.0 19.9 65 1019.7 7.6 NE 13.0 0.0 0.0
17:39 27.0 19.9 65 1019.6 8.3 ENE 13.0 0.0 0.0
17:40 27.0 19.9 65 1019.7 9.8 NE 13.0 0.0 0.0
17:41 27.0 19.9 65 1019.7 9.8 NE 13.0 0.0 0.0
17:42 27.0 19.9 65 1019.6 9.2 NE 13.0 0.0 0.0
17:43 27.0 19.6 64 1019.5 11.4 NE 13.0 0.0 0.0
17:45 26.9 19.5 64 1019.5 10.7 NE 13.0 0.0 0.0
17:46 26.9 19.5 64 1019.7 9.8 E 13.0 0.0 0.0
17:47 26.9 19.5 64 1019.7 8.3 NW 11.4 0.0 0.0
17:48 26.9 19.5 64 1019.7 6.9 NW 11.4 0.0 0.0
17:49 26.9 19.5 64 1019.8 6.9 NW 11.4 0.0 0.0
17:50 26.9 19.5 64 1019.6 6.9 NW 11.4 0.0 0.0
17:51 26.8 19.7 65 1019.6 12.1 E 12.1 0.0 0.0
17:52 26.8 19.7 65 1019.7 9.8 NW 12.1 0.0 0.0
17:53 26.8 19.7 65 1019.5 9.2 N 12.1 0.0 0.0
17:54 26.8 19.7 65 1019.8 9.2 N 12.1 0.0 0.0
17:55 26.7 19.6 65 1019.5 8.3 E 12.1 0.0 0.0
17:56 26.6 19.5 65 1019.6 6.0 N 12.1 0.0 0.0
17:57 26.4 19.3 65 1019.6 9.2 N 12.1 0.0 0.0
17:58 26.3 19.0 64 1019.5 9.2 E 12.1 0.0 0.0
17:59 26.2 19.1 65 1019.7 6.0 N 12.1 0.0 0.0
18:00 26.1 19.0 65 1019.5 6.9 E 12.1 0.0 0.0
18:02 26.1 19.3 66 1019.5 9.2 SW 9.2 0.0 0.0
18:03 26.1 19.3 66 1019.3 8.3 NE 9.2 0.0 0.0
18:04 26.1 19.3 66 1019.4 8.3 NE 9.2 0.0 0.0
18:05 26.1 19.3 66 1019.5 10.7 NE 10.7 0.0 0.0
18:06 26.1 19.3 66 1019.4 9.8 NE 10.7 0.0 0.0
18:07 26.1 19.3 66 1019.5 3.8 SE 10.7 0.0 0.0
18:08 26.1 19.5 67 1019.7 9.2 NE 10.7 0.0 0.0
18:09 26.1 19.5 67 1019.3 9.2 NE 10.7 0.0 0.0
18:10 26.2 19.6 67 1019.3 7.6 E 10.7 0.0 0.0
18:11 26.1 19.3 66 1019.4 12.1 E 12.1 0.0 0.0
18:12 26.1 19.3 66 1019.4 12.1 E 12.1 0.0 0.0
18:13 26.1 19.3 66 1019.3 12.1 E 12.1 0.0 0.0
18:14 25.9 19.3 67 1019.4 6.0 N 12.1 0.0 0.0
18:15 25.8 19.2 67 1019.3 9.8 NE 12.1 0.0 0.0
18:16 25.7 18.9 66 1019.4 10.7 E 12.1 0.0 0.0
18:17 25.6 19.0 67 1019.1 4.5 E 12.1 0.0 0.0
18:18 25.5 19.2 68 1019.2 4.5 NE 12.1 0.0 0.0
18:19 25.5 19.2 68 1019.3 6.9 E 12.1 0.0 0.0
18:21 25.6 19.5 69 1019.3 6.9 NE 12.1 0.0 0.0
18:22 25.6 19.5 69 1019.5 6.9 SE 12.1 0.0 0.0
18:23 25.7 19.6 69 1019.3 4.5 E 12.1 0.0 0.0
18:24 25.7 19.6 69 1019.2 6.0 NE 12.1 0.0 0.0
18:25 25.8 19.7 69 1019.4 4.5 NE 10.7 0.0 0.0
18:26 25.8 19.7 69 1019.6 10.7 E 10.7 0.0 0.0
18:27 25.8 19.7 69 1019.3 9.8 NE 12.1 0.0 0.0
18:28 25.8 19.7 69 1019.1 8.3 E 12.1 0.0 0.0
18:29 25.7 19.6 69 1019.4 7.6 NE 12.1 0.0 0.0
18:30 25.7 19.6 69 1019.1 13.0 NW 13.0 0.0 0.0
18:31 25.6 19.5 69 1019.3 9.8 E 13.0 0.0 0.0
18:32 25.6 19.5 69 1019.1 9.8 E 13.0 0.0 0.0
18:33 25.6 19.5 69 1019.4 5.4 SE 13.0 0.0 0.0
18:34 25.6 19.5 69 1019.3 8.3 NE 13.0 0.0 0.0
18:35 25.6 19.5 69 1019.3 13.0 NE 13.0 0.0 0.0
18:36 25.5 19.4 69 1019.3 9.8 NE 13.0 0.0 0.0
18:37 25.5 19.4 69 1019.2 7.6 NE 13.0 0.0 0.0
18:38 25.5 19.4 69 1019.3 7.6 NE 13.0 0.0 0.0
18:40 25.5 19.7 70 1019.3 8.3 S 13.0 0.0 0.0
18:41 25.5 19.7 70 1019.3 6.9 NE 13.0 0.0 0.0
18:42 25.5 19.7 70 1019.4 9.2 E 13.0 0.0 0.0
18:43 25.5 19.7 70 1019.3 6.9 E 13.0 0.0 0.0
18:44 25.5 19.7 70 1019.2 6.9 E 13.0 0.0 0.0
18:45 25.5 19.7 70 1019.1 6.9 NE 13.0 0.0 0.0
18:46 25.5 19.7 70 1019.1 6.9 SW 9.8 0.0 0.0
18:47 25.6 19.7 70 1019.3 7.6 W 9.2 0.0 0.0
18:48 25.6 19.7 70 1019.3 7.6 E 9.2 0.0 0.0
18:49 25.6 19.7 70 1019.3 13.0 E 13.0 0.0 0.0
18:50 25.6 19.7 70 1019.1 9.2 SE 13.0 0.0 0.0
18:51 25.5 19.7 70 1019.3 4.5 SW 13.0 0.0 0.0
18:52 25.5 19.7 70 1019.4 3.1 NE 13.0 0.0 0.0
18:53 25.5 19.7 70 1019.4 8.3 NE 13.0 0.0 0.0
18:54 25.5 19.7 70 1019.5 8.3 N 13.0 0.0 0.0
18:55 25.5 19.7 70 1019.3 7.6 NE 13.0 0.0 0.0
18:56 25.5 19.7 70 1019.5 5.4 NE 13.0 0.0 0.0
18:57 25.4 19.6 70 1019.3 7.6 W 13.0 0.0 0.0
18:59 25.4 19.6 70 1019.2 7.6 N 9.2 0.0 0.0
19:00 25.4 19.6 70 1019.0 9.8 SE 9.8 0.0 0.0
19:01 25.4 19.6 70 1019.3 9.8 SE 9.8 0.0 0.0
19:02 25.4 19.6 70 1019.3 9.8 SE 9.8 0.0 0.0
19:03 25.4 19.6 70 1019.2 9.8 SE 9.8 0.0 0.0
19:04 25.4 19.6 70 1019.3 9.8 SE 9.8 0.0 0.0
19:05 25.4 19.6 70 1019.4 9.8 SE 9.8 0.0 0.0
19:06 25.4 19.6 70 1019.2 9.8 SE 9.8 0.0 0.0
19:07 25.1 19.3 70 1019.1 4.5 NW 9.8 0.0 0.0
19:08 25.1 19.3 70 1019.1 11.4 N 11.4 0.0 0.0
19:09 25.1 19.3 70 1019.1 6.0 N 11.4 0.0 0.0
19:10 25.0 19.2 70 1019.2 7.6 NE 11.4 0.0 0.0
19:11 25.0 19.2 70 1019.3 8.3 NE 11.4 0.0 0.0
19:12 25.0 19.2 70 1019.1 8.3 NE 11.4 0.0 0.0
19:13 24.9 19.1 70 1019.1 6.0 NW 11.4 0.0 0.0
19:14 24.9 19.1 70 1018.9 10.7 E 11.4 0.0 0.0
19:15 24.9 19.1 70 1019.0 10.7 NNW 11.4 0.0 0.0
19:16 24.8 19.0 70 1019.3 8.3 E 11.4 0.0 0.0
19:17 24.7 18.9 70 1019.2 13.0 NE 13.0 0.0 0.0
19:18 24.7 18.9 70 1019.1 9.8 NNE 13.0 0.0 0.0
19:19 24.6 18.8 70 1019.0 6.9 E 13.0 0.0 0.0
19:21 24.6 18.8 70 1019.1 9.2 NE 13.0 0.0 0.0
19:22 24.5 18.7 70 1019.1 7.6 NE 13.0 0.0 0.0
19:23 24.5 18.9 71 1019.2 6.9 NE 13.0 0.0 0.0
19:24 24.4 18.8 71 1019.0 6.0 NE 13.0 0.0 0.0
19:27 24.4 18.8 71 1018.9 6.0 W 13.0 0.0 0.0
19:28 24.3 18.7 71 1019.0 6.9 NE 9.8 0.0 0.0
19:29 24.3 18.7 71 1019.1 5.4 NE 9.8 0.0 0.0
19:30 24.3 18.7 71 1019.0 11.4 NE 11.4 0.0 0.0
19:31 24.3 18.7 71 1019.2 10.7 NE 11.4 0.0 0.0
19:32 24.3 18.7 71 1019.1 7.6 SW 11.4 0.0 0.0
19:33 24.3 18.7 71 1018.9 8.3 N 11.4 0.0 0.0
19:34 24.2 18.6 71 1019.1 7.6 NE 11.4 0.0 0.0
19:35 24.1 18.5 71 1019.0 9.2 NE 11.4 0.0 0.0
19:36 24.1 18.5 71 1019.3 6.0 NE 11.4 0.0 0.0
19:37 24.1 18.5 71 1019.0 9.8 E 11.4 0.0 0.0
19:38 24.0 18.4 71 1019.2 9.8 E 11.4 0.0 0.0
19:39 24.0 18.4 71 1019.2 6.0 SW 11.4 0.0 0.0
19:40 23.9 18.3 71 1018.9 6.9 S 10.7 0.0 0.0
19:41 23.8 18.2 71 1019.1 9.8 NE 10.7 0.0 0.0
19:42 23.8 18.2 71 1019.0 9.8 NE 10.7 0.0 0.0
19:43 23.8 18.5 72 1019.0 9.2 NE 10.7 0.0 0.0
19:45 23.7 18.4 72 1019.0 9.2 SW 10.7 0.0 0.0
19:46 23.7 18.4 72 1019.1 8.3 NE 10.7 0.0 0.0
19:47 23.6 18.3 72 1019.0 8.3 NE 10.7 0.0 0.0
19:48 23.6 18.3 72 1019.0 13.0 NE 13.0 0.0 0.0
19:49 23.5 18.2 72 1019.1 13.0 N 13.0 0.0 0.0
19:50 23.5 18.2 72 1019.1 6.0 NE 13.0 0.0 0.0
19:51 23.4 18.1 72 1019.0 4.5 NE 13.0 0.0 0.0
19:52 23.4 18.1 72 1019.2 9.8 NE 13.0 0.0 0.0
19:53 23.4 18.1 72 1018.9 10.7 NE 13.0 0.0 0.0
19:54 23.4 18.1 72 1019.1 9.8 SW 13.0 0.0 0.0
19:55 23.3 18.0 72 1019.0 7.6 NE 13.0 0.0 0.0
19:56 23.3 18.0 72 1019.3 6.9 E 13.0 0.0 0.0
19:57 23.2 17.9 72 1019.1 6.9 N 13.0 0.0 0.0
19:58 23.2 17.9 72 1019.1 5.4 E 13.0 0.0 0.0
19:59 23.1 17.8 72 1019.1 6.9 NE 10.7 0.0 0.0
20:00 23.1 18.0 73 1019.3 6.0 E 10.7 0.0 0.0
20:01 23.1 18.0 73 1018.9 6.0 NE 10.7 0.0 0.0
20:03 23.0 17.9 73 1018.9 6.9 NE 10.7 0.0 0.0
20:04 23.0 17.9 73 1019.1 9.2 NE 10.7 0.0 0.0
20:05 23.0 17.9 73 1019.1 9.2 NE 10.7 0.0 0.0
20:06 22.9 17.8 73 1018.9 9.2 E 10.7 0.0 0.0
20:07 22.9 17.8 73 1019.0 9.8 SW 10.7 0.0 0.0
20:08 22.8 17.7 73 1019.0 7.6 NE 10.7 0.0 0.0
20:09 22.8 17.7 73 1019.2 9.2 S 10.7 0.0 0.0
20:10 22.8 17.7 73 1019.0 7.6 E 10.7 0.0 0.0
20:11 22.7 17.6 73 1019.1 9.8 NE 10.7 0.0 0.0
20:12 22.6 17.5 73 1019.0 9.2 N 10.7 0.0 0.0
20:13 22.6 17.5 73 1019.0 7.6 NE 9.8 0.0 0.0
20:14 22.6 17.5 73 1019.1 6.0 NE 9.8 0.0 0.0
20:15 22.5 17.4 73 1019.3 8.3 SE 9.8 0.0 0.0
20:16 22.5 17.4 73 1019.2 8.3 NE 9.8 0.0 0.0
20:17 22.4 18.2 77 1019.1 9.2 NE 9.8 0.0 0.0
20:18 22.4 18.2 77 1019.0 9.2 NE 9.8 0.0 0.0
20:19 22.3 18.3 78 1019.2 11.4 NE 11.4 0.0 0.0
20:20 22.3 18.3 78 1019.2 9.2 NE 11.4 0.0 0.0
20:22 22.2 18.2 78 1019.2 7.6 NE 11.4 0.0 0.0
20:23 22.1 18.1 78 1018.9 6.9 SW 11.4 0.0 0.0
20:24 22.1 18.3 79 1019.0 11.4 NE 11.4 0.0 0.0
20:25 22.1 18.3 79 1019.0 9.8 N 11.4 0.0 0.0
20:26 22.1 18.3 79 1019.2 7.6 NE 11.4 0.0 0.0
20:27 22.0 18.2 79 1019.0 4.5 N 11.4 0.0 0.0
20:28 22.0 18.2 79 1019.1 4.5 NE 11.4 0.0 0.0
20:29 22.0 18.2 79 1019.0 9.2 NW 11.4 0.0 0.0
20:30 22.0 18.2 79 1019.0 8.3 NE 11.4 0.0 0.0
20:31 21.9 18.1 79 1018.9 4.5 NE 11.4 0.0 0.0
20:32 21.9 18.1 79 1018.8 9.2 SW 11.4 0.0 0.0
20:33 21.8 18.0 79 1018.8 6.9 NE 11.4 0.0 0.0
20:34 21.7 17.9 79 1018.9 5.4 NE 9.8 0.0 0.0
20:35 21.7 17.9 79 1019.0 6.9 NE 9.8 0.0 0.0
20:36 21.6 17.8 79 1019.2 6.0 NE 9.8 0.0 0.0
20:37 21.6 17.8 79 1019.2 11.4 N 11.4 0.0 0.0
20:38 21.5 17.7 79 1019.1 11.4 NE 11.4 0.0 0.0
20:39 21.5 17.7 79 1019.0 8.3 S 11.4 0.0 0.0
20:41 21.3 17.5 79 1019.0 6.9 SW 11.4 0.0 0.0
20:42 21.3 17.5 79 1018.9 9.8 E 11.4 0.0 0.0
20:43 21.3 17.7 80 1019.0 9.8 S 11.4 0.0 0.0
20:44 21.2 17.6 80 1019.1 8.3 E 11.4 0.0 0.0
20:45 21.2 17.6 80 1019.0 8.3 NE 11.4 0.0 0.0
20:46 21.1 17.5 80 1019.0 6.0 NE 11.4 0.0 0.0
20:47 21.0 17.4 80 1018.9 6.0 W 11.4 0.0 0.0
20:48 21.0 17.4 80 1018.9 9.8 E 11.4 0.0 0.0
20:49 21.0 17.4 80 1019.2 10.7 E 10.7 0.0 0.0
20:50 20.9 17.3 80 1019.0 9.2 SW 10.7 0.0 0.0
20:51 20.8 17.2 80 1018.7 10.7 N 10.7 0.0 0.0
20:52 20.8 17.2 80 1018.8 10.7 S 10.7 0.0 0.0
20:53 20.7 17.3 81 1018.9 9.2 E 10.7 0.0 0.0
20:54 20.7 17.3 81 1018.9 6.9 E 10.7 0.0 0.0
20:55 20.7 17.3 81 1019.0 7.6 N 10.7 0.0 0.0
20:56 20.7 17.3 81 1019.0 4.5 W 10.7 0.0 0.0
20:57 20.6 17.2 81 1018.8 7.6 N 10.7 0.0 0.0
20:59 20.6 17.2 81 1019.0 9.2 NE 10.7 0.0 0.0
21:00 20.5 17.1 81 1019.0 9.2 E 10.7 0.0 0.0
21:01 20.5 17.1 81 1018.9 9.2 E 10.7 0.0 0.0
21:02 20.5 17.1 81 1018.9 9.2 E 10.7 0.0 0.0
21:03 20.5 17.1 81 1019.1 9.2 E 10.7 0.0 0.0
21:04 20.5 17.1 81 1018.9 9.2 E 10.7 0.0 0.0
21:05 20.5 17.1 81 1019.1 9.2 E 10.7 0.0 0.0
21:06 20.5 17.1 81 1018.9 9.2 E 10.7 0.0 0.0
21:07 20.3 17.1 82 1019.0 6.9 NE 10.7 0.0 0.0
21:08 20.3 17.1 82 1019.0 6.0 E 10.7 0.0 0.0
21:09 20.3 17.1 82 1019.1 10.7 W 10.7 0.0 0.0
21:10 20.3 17.1 82 1019.1 9.2 NE 10.7 0.0 0.0
21:11 20.3 17.1 82 1018.8 8.3 N 10.7 0.0 0.0
21:12 20.2 17.0 82 1018.9 12.1 NE 12.1 0.0 0.0
21:13 20.2 17.0 82 1019.1 7.6 E 12.1 0.0 0.0
21:14 20.2 17.2 83 1019.1 10.7 NW 12.1 0.0 0.0
21:15 20.2 17.2 83 1019.1 10.7 NW 12.1 0.0 0.0
21:17 20.1 17.1 83 1019.0 7.6 ESE 12.1 0.0 0.0
21:18 20.1 17.1 83 1019.0 7.6 E 12.1 0.0 0.0
21:19 20.1 17.1 83 1018.9 6.9 NE 12.1 0.0 0.0
21:20 20.1 17.1 83 1018.7 6.9 NE 12.1 0.0 0.0
21:21 20.0 17.0 83 1018.9 7.6 NE 12.1 0.0 0.0
21:23 20.0 17.0 83 1018.9 6.0 NE 12.1 0.0 0.0
21:24 20.0 17.0 83 1019.0 6.0 NE 10.7 0.0 0.0
21:25 20.0 17.0 83 1018.7 3.8 NE 10.7 0.0 0.0
21:26 20.0 17.0 83 1018.9 6.9 NE 10.7 0.0 0.0
21:27 20.0 17.0 83 1019.0 7.6 NE 9.2 0.0 0.0
21:28 20.0 17.0 83 1018.8 8.3 SE 8.3 0.0 0.0
21:29 20.0 17.0 83 1019.3 6.0 SE 8.3 0.0 0.0
21:30 20.0 17.0 83 1019.0 3.8 NE 8.3 0.0 0.0
21:31 19.9 17.1 84 1018.9 5.4 SE 8.3 0.0 0.0
21:32 19.9 17.1 84 1018.8 8.3 E 8.3 0.0 0.0
21:33 19.9 17.1 84 1019.0 5.4 NE 8.3 0.0 0.0
21:34 19.9 17.1 84 1019.1 6.9 NE 8.3 0.0 0.0
21:35 19.9 17.1 84 1018.9 6.9 NE 8.3 0.0 0.0
21:36 19.9 17.1 84 1019.1 5.4 N 8.3 0.0 0.0
21:37 19.8 17.0 84 1018.8 4.5 NW 8.3 0.0 0.0
21:39 19.8 17.0 84 1018.9 5.4 N 8.3 0.0 0.0
21:40 19.8 17.0 84 1019.0 10.7 E 10.7 0.0 0.0
21:41 19.8 17.0 84 1018.8 9.8 NE 10.7 0.0 0.0
21:42 19.8 17.0 84 1018.7 7.6 NE 10.7 0.0 0.0
21:43 19.8 17.0 84 1018.6 5.4 NE 10.7 0.0 0.0
21:44 19.7 16.9 84 1018.8 7.6 E 10.7 0.0 0.0
21:45 19.7 16.9 84 1018.9 5.4 NE 10.7 0.0 0.0
21:46 19.7 16.9 84 1018.9 5.4 NE 10.7 0.0 0.0
21:47 19.7 16.9 84 1018.8 4.5 NE 10.7 0.0 0.0
21:48 19.7 16.9 84 1019.0 4.5 NE 10.7 0.0 0.0
21:49 19.7 16.9 84 1018.8 4.5 NW 10.7 0.0 0.0
21:50 19.7 16.9 84 1018.8 4.5 NW 10.7 0.0 0.0
21:51 19.7 16.9 84 1018.9 7.6 NE 10.7 0.0 0.0
21:52 19.7 16.9 84 1018.8 7.6 NE 10.7 0.0 0.0
21:53 19.7 16.9 84 1018.8 9.2 N 10.7 0.0 0.0
21:54 19.7 16.9 84 1018.8 6.9 E 10.7 0.0 0.0
21:55 19.7 16.9 84 1018.8 9.2 E 10.7 0.0 0.0
21:56 19.6 16.8 84 1018.7 9.2 NE 10.7 0.0 0.0
21:58 19.6 16.8 84 1018.8 4.5 E 10.7 0.0 0.0
21:59 19.6 16.8 84 1018.7 4.5 E 10.7 0.0 0.0
22:00 19.6 16.8 84 1018.9 6.0 NE 10.7 0.0 0.0
22:01 19.6 16.8 84 1018.8 6.0 NE 9.8 0.0 0.0
22:02 19.6 16.8 84 1018.7 9.2 NE 9.8 0.0 0.0
22:03 19.6 16.8 84 1018.6 9.8 N 9.8 0.0 0.0
22:04 19.6 16.8 84 1019.0 9.8 N 9.8 0.0 0.0
22:05 19.6 16.8 84 1018.7 9.8 N 9.8 0.0 0.0
22:06 19.6 16.8 84 1018.8 6.0 W 9.8 0.0 0.0
22:07 19.6 16.8 84 1018.8 10.7 N 10.7 0.0 0.0
22:08 19.6 16.8 84 1018.8 10.7 N 10.7 0.0 0.0
22:09 19.6 16.8 84 1018.9 8.3 NE 10.7 0.0 0.0
22:10 19.6 16.8 84 1018.8 6.0 S 10.7 0.0 0.0
22:11 19.5 16.7 84 1019.0 8.3 NE 10.7 0.0 0.0
22:12 19.5 16.7 84 1019.0 6.9 NE 10.7 0.0 0.0
22:13 19.5 16.7 84 1018.8 6.9 E 10.7 0.0 0.0
22:14 19.5 16.7 84 1018.6 6.9 E 10.7 0.0 0.0
22:16 19.5 16.7 84 1019.0 6.9 W 10.7 0.0 0.0
22:17 19.5 16.7 84 1018.8 7.6 NNE 10.7 0.0 0.0
22:18 19.5 16.7 84 1018.7 8.3 S 8.3 0.0 0.0
22:19 19.5 16.9 85 1018.9 6.0 E 8.3 0.0 0.0
22:20 19.5 16.9 85 1018.8 4.5 E 8.3 0.0 0.0
22:21 19.5 16.9 85 1018.9 4.5 E 8.3 0.0 0.0
22:22 19.4 16.8 85 1018.7 8.3 NE 8.3 0.0 0.0
22:23 19.4 16.8 85 1018.7 5.4 E 8.3 0.0 0.0
22:24 19.4 16.8 85 1018.8 6.0 NW 8.3 0.0 0.0
22:25 19.4 16.8 85 1018.7 7.6 N 8.3 0.0 0.0
22:26 19.4 16.8 85 1018.9 7.6 N 8.3 0.0 0.0
22:27 19.4 16.8 85 1018.7 9.2 NE 9.2 0.0 0.0
22:28 19.4 16.8 85 1018.8 6.9 NE 9.2 0.0 0.0
22:29 19.4 16.8 85 1018.7 6.9 NE 9.2 0.0 0.0
22:30 19.4 16.8 85 1019.1 5.4 NW 9.2 0.0 0.0
22:31 19.4 16.8 85 1018.6 8.3 W 9.2 0.0 0.0
22:32 19.4 16.8 85 1018.9 6.9 NE 9.2 0.0 0.0
22:33 19.4 16.8 85 1018.7 6.9 NE 9.2 0.0 0.0
22:35 19.4 16.8 85 1018.8 9.2 NE 9.2 0.0 0.0
22:36 19.4 16.8 85 1019.1 13.6 NW 13.6 0.0 0.0
22:37 19.4 16.8 85 1018.8 6.9 E 13.6 0.0 0.0
22:38 19.4 16.8 85 1018.7 6.9 E 13.6 0.0 0.0
22:39 19.4 16.8 85 1018.8 6.9 N 13.6 0.0 0.0
22:40 19.4 16.8 85 1018.7 6.0 N 13.6 0.0 0.0
22:41 19.4 16.8 85 1018.7 4.5 N 13.6 0.0 0.0
22:42 19.4 16.8 85 1018.8 3.8 NE 13.6 0.0 0.0
22:43 19.4 16.8 85 1018.8 3.8 NE 13.6 0.0 0.0
22:44 19.4 16.8 85 1018.9 5.4 NE 13.6 0.0 0.0
22:45 19.4 16.8 85 1018.9 7.6 SW 13.6 0.0 0.0
22:46 19.4 16.8 85 1018.8 7.6 E 13.6 0.0 0.0
22:47 19.3 16.7 85 1018.8 9.2 WNW 9.2 0.0 0.0
22:48 19.3 16.7 85 1019.0 9.2 NE 9.2 0.0 0.0
22:49 19.3 16.7 85 1018.9 9.8 N 9.8 0.0 0.0
22:50 19.3 16.7 85 1018.9 5.4 E 9.8 0.0 0.0
22:51 19.3 16.7 85 1019.0 9.8 E 9.8 0.0 0.0
22:52 19.3 16.9 86 1018.8 9.8 NE 9.8 0.0 0.0
22:53 19.3 16.9 86 1018.9 8.3 NE 9.8 0.0 0.0
22:55 19.2 16.8 86 1018.8 6.9 W 9.8 0.0 0.0
22:56 19.2 16.8 86 1018.7 6.9 NE 9.8 0.0 0.0
22:57 19.2 16.8 86 1018.6 6.9 NE 9.8 0.0 0.0
22:58 19.2 16.8 86 1018.7 6.9 NE 9.8 0.0 0.0
22:59 19.2 16.8 86 1018.7 9.2 E 9.8 0.0 0.0
23:00 19.2 16.8 86 1018.7 6.0 E 9.8 0.0 0.0
23:01 19.2 16.8 86 1018.7 6.0 E 9.8 0.0 0.0
23:02 19.2 16.8 86 1018.6 6.0 E 9.8 0.0 0.0
23:03 19.2 16.8 86 1018.6 6.0 E 9.2 0.0 0.0
23:04 19.2 16.8 86 1018.5 6.0 E 9.2 0.0 0.0
23:05 19.2 16.8 86 1018.8 6.0 E 9.2 0.0 0.0
23:06 19.2 16.8 86 1018.6 6.0 E 9.2 0.0 0.0
23:07 19.1 16.7 86 1018.6 10.7 E 10.7 0.0 0.0
23:08 19.1 16.7 86 1018.7 10.7 W 10.7 0.0 0.0
23:09 19.1 16.7 86 1018.7 6.9 NNE 10.7 0.0 0.0
23:10 19.1 16.7 86 1018.7 6.9 SW 10.7 0.0 0.0
23:11 19.1 16.7 86 1018.7 6.9 NW 10.7 0.0 0.0
23:12 19.1 16.7 86 1018.5 6.9 NE 10.7 0.0 0.0
23:14 19.1 16.7 86 1018.7 11.4 NE 11.4 0.0 0.0
23:15 19.1 16.9 87 1018.5 11.4 NW 11.4 0.0 0.0
23:16 19.1 16.9 87 1018.9 9.2 E 11.4 0.0 0.0
23:17 19.1 16.9 87 1018.8 7.6 W 11.4 0.0 0.0
23:18 19.1 16.9 87 1018.7 7.6 W 11.4 0.0 0.0
23:19 19.1 16.9 87 1018.7 6.9 E 11.4 0.0 0.0
23:20 19.1 16.9 87 1018.5 8.3 NE 11.4 0.0 0.0
23:21 19.1 16.9 87 1018.6 7.6 N 11.4 0.0 0.0
23:22 19.1 16.9 87 1018.7 8.3 NE 11.4 0.0 0.0
23:23 19.1 16.9 87 1018.6 6.9 E 11.4 0.0 0.0
23:24 19.1 16.9 87 1018.6 6.9 N 11.4 0.0 0.0
23:25 19.0 16.8 87 1018.5 9.2 NE 9.2 0.0 0.0
23:27 19.0 16.8 87 1018.5 6.0 SW 9.2 0.0 0.0
23:28 19.0 16.8 87 1018.7 11.4 NE 11.4 0.0 0.0
23:29 19.0 16.8 87 1018.5 9.2 E 11.4 0.0 0.0
23:30 19.0 16.6 86 1018.5 9.2 E 11.4 0.0 0.0
23:31 19.0 16.6 86 1018.6 7.6 W 11.4 0.0 0.0
23:32 19.0 16.6 86 1018.6 8.3 N 11.4 0.0 0.0
23:33 19.0 16.6 86 1018.7 9.8 S 11.4 0.0 0.0
23:34 19.0 16.6 86 1018.6 6.9 NE 11.4 0.0 0.0
23:35 19.0 16.6 86 1018.7 6.9 NE 11.4 0.0 0.0
23:36 19.0 16.6 86 1018.6 6.9 NW 11.4 0.0 0.0
23:37 19.0 16.6 86 1018.6 10.7 NE 11.4 0.0 0.0
23:38 19.0 16.6 86 1018.7 4.5 SE 10.7 0.0 0.0
23:39 19.0 16.6 86 1018.6 5.4 E 10.7 0.0 0.0
23:41 19.0 16.8 87 1018.6 8.3 N 10.7 0.0 0.0
23:42 19.0 16.8 87 1018.4 8.3 SE 10.7 0.0 0.0
23:43 18.9 16.7 87 1018.4 7.6 NE 10.7 0.0 0.0
23:44 18.9 16.7 87 1018.3 6.9 NE 10.7 0.0 0.0
23:45 18.9 16.7 87 1018.5 9.2 NE 10.7 0.0 0.0
23:46 18.9 16.7 87 1018.5 9.2 E 10.7 0.0 0.0
23:47 18.9 16.7 87 1018.6 6.9 NW 10.7 0.0 0.0
23:48 18.9 16.7 87 1018.6 5.4 E 9.8 0.0 0.0
23:49 18.9 16.7 87 1018.3 8.3 NE 9.8 0.0 0.0
23:50 18.9 16.7 87 1018.5 4.5 NE 9.8 0.0 0.0
23:51 18.9 16.7 87 1018.7 8.3 NE 9.8 0.0 0.0
23:52 18.9 16.7 87 1018.3 8.3 W 9.2 0.0 0.0
23:53 18.9 16.7 87 1018.4 6.9 N 9.2 0.0 0.0
23:54 18.9 16.7 87 1018.2 8.3 NE 9.2 0.0 0.0
23:55 18.9 16.7 87 1018.3 5.4 NE 9.2 0.0 0.0
23:56 18.9 16.7 87 1018.1 6.0 N 8.3 0.0 0.0
23:57 18.9 16.7 87 1018.3 7.6 NE 8.3 0.0 0.0
23:59 18.8 16.6 87 1018.4 5.4 E 8.3 0.0 0.0

 

 

UK - WEATHER STATION TOPSITES - UK World Weather Websites

Copyright © Carnkie Weather 2009 - 2021.